Time,TemperatureF,DewpointF,PressureIn,WindDirection,WindDirectionDegrees,WindSpeedMPH,WindSpeedGustMPH,Humidity,HourlyPrecipIn,Conditions,Clouds,dailyrainin,SoftwareType,DateUTC
2013-05-07 00:00:00,76.8,70.7,29.87,North,0,3.0,4.0,84,0.00,,,0.00,meteohub,2013-05-07 04:00:00,
2013-05-07 00:01:00,76.8,70.7,29.87,North,0,4.0,4.0,84,0.00,,,0.00,meteohub,2013-05-07 04:01:00,
2013-05-07 00:02:00,76.6,70.7,29.87,North,0,2.0,4.0,84,0.00,,,0.00,meteohub,2013-05-07 04:02:00,
2013-05-07 00:03:00,76.6,70.7,29.87,NE,45,2.0,4.0,84,0.00,,,0.00,meteohub,2013-05-07 04:03:00,
2013-05-07 00:04:00,76.5,70.7,29.87,North,0,2.0,4.0,85,0.00,,,0.00,meteohub,2013-05-07 04:04:00,
2013-05-07 00:06:00,76.5,70.7,29.86,NE,45,2.0,4.0,85,0.00,,,0.00,meteohub,2013-05-07 04:06:00,
2013-05-07 00:08:00,76.3,70.5,29.86,NE,45,2.0,4.0,85,0.00,,,0.00,meteohub,2013-05-07 04:08:00,
2013-05-07 00:10:00,76.3,70.5,29.86,NE,45,2.0,4.0,85,0.00,,,0.00,meteohub,2013-05-07 04:10:00,
2013-05-07 00:11:00,76.3,70.5,29.86,North,0,2.0,4.0,85,0.00,,,0.00,meteohub,2013-05-07 04:11:00,
2013-05-07 00:14:00,76.1,70.5,29.86,North,0,2.0,4.0,85,0.00,,,0.00,meteohub,2013-05-07 04:14:00,
2013-05-07 00:15:00,76.1,70.5,29.86,NW,315,2.0,4.0,85,0.00,,,0.00,meteohub,2013-05-07 04:15:00,
2013-05-07 00:16:00,76.1,70.5,29.86,NNE,23,0.0,4.0,85,0.00,,,0.00,meteohub,2013-05-07 04:16:00,
2013-05-07 00:17:00,76.1,70.5,29.86,NW,315,2.0,4.0,85,0.00,,,0.00,meteohub,2013-05-07 04:17:00,
2013-05-07 00:19:00,76.1,70.5,29.86,North,0,0.0,4.0,85,0.00,,,0.00,meteohub,2013-05-07 04:19:00,
2013-05-07 00:22:00,76.3,70.3,29.86,West,270,0.0,2.0,85,0.00,,,0.00,meteohub,2013-05-07 04:22:00,
2013-05-07 00:23:00,76.3,70.3,29.86,ENE,68,2.0,2.0,85,0.00,,,0.00,meteohub,2013-05-07 04:23:00,
2013-05-07 00:25:00,76.1,70.3,29.86,North,0,2.0,2.0,85,0.00,,,0.00,meteohub,2013-05-07 04:25:00,
2013-05-07 00:27:00,76.1,70.3,29.86,NW,315,2.0,2.0,85,0.00,,,0.00,meteohub,2013-05-07 04:27:00,
2013-05-07 00:28:00,76.1,70.3,29.86,North,0,2.0,2.0,85,0.00,,,0.00,meteohub,2013-05-07 04:28:00,
2013-05-07 00:31:00,76.1,70.5,29.86,North,0,1.0,2.0,85,0.00,,,0.00,meteohub,2013-05-07 04:31:00,
2013-05-07 00:32:00,76.1,70.5,29.85,NW,315,0.0,2.0,85,0.00,,,0.00,meteohub,2013-05-07 04:32:00,
2013-05-07 00:33:00,76.1,70.5,29.85,North,0,1.0,2.0,85,0.00,,,0.00,meteohub,2013-05-07 04:33:00,
2013-05-07 00:37:00,76.3,70.5,29.85,SE,135,0.0,2.0,85,0.00,,,0.00,meteohub,2013-05-07 04:37:00,
2013-05-07 00:38:00,76.1,70.5,29.85,South,180,0.0,2.0,85,0.00,,,0.00,meteohub,2013-05-07 04:38:00,
2013-05-07 00:40:00,76.1,70.5,29.85,South,180,0.0,2.0,85,0.00,,,0.00,meteohub,2013-05-07 04:40:00,
2013-05-07 00:42:00,76.1,70.3,29.85,East,90,0.0,2.0,85,0.00,,,0.00,meteohub,2013-05-07 04:42:00,
2013-05-07 00:43:00,76.1,70.3,29.85,East,90,0.0,2.0,85,0.00,,,0.00,meteohub,2013-05-07 04:43:00,
2013-05-07 00:44:00,76.1,70.3,29.85,East,90,0.0,2.0,85,0.00,,,0.00,meteohub,2013-05-07 04:44:00,
2013-05-07 00:47:00,75.9,70.3,29.85,North,0,0.0,1.0,85,0.00,,,0.00,meteohub,2013-05-07 04:47:00,
2013-05-07 00:49:00,75.7,70.3,29.85,SE,135,0.0,1.0,85,0.00,,,0.00,meteohub,2013-05-07 04:49:00,
2013-05-07 00:51:00,75.9,70.3,29.85,NE,45,0.0,1.0,86,0.00,,,0.00,meteohub,2013-05-07 04:51:00,
2013-05-07 00:52:00,75.9,70.3,29.84,North,0,0.0,1.0,86,0.00,,,0.00,meteohub,2013-05-07 04:52:00,
2013-05-07 00:53:00,75.9,70.3,29.85,NNW,338,2.0,2.0,86,0.00,,,0.00,meteohub,2013-05-07 04:53:00,
2013-05-07 00:56:00,75.9,70.3,29.85,North,0,0.0,1.0,86,0.00,,,0.00,meteohub,2013-05-07 04:56:00,
2013-05-07 00:57:00,75.9,70.3,29.85,West,270,0.0,1.0,86,0.00,,,0.00,meteohub,2013-05-07 04:57:00,
2013-05-07 00:58:00,75.9,70.3,29.85,NW,315,0.0,1.0,86,0.00,,,0.00,meteohub,2013-05-07 04:58:00,
2013-05-07 01:00:00,75.9,70.3,29.85,ESE,113,0.0,2.0,86,0.00,,,0.00,meteohub,2013-05-07 05:00:00,
2013-05-07 01:03:00,75.9,70.3,29.85,East,90,0.0,2.0,86,0.00,,,0.00,meteohub,2013-05-07 05:03:00,
2013-05-07 01:04:00,75.9,70.5,29.85,East,90,0.0,2.0,86,0.00,,,0.00,meteohub,2013-05-07 05:04:00,
2013-05-07 01:07:00,75.9,70.5,29.85,South,180,0.0,2.0,86,0.00,,,0.00,meteohub,2013-05-07 05:07:00,
2013-05-07 01:08:00,75.9,70.5,29.85,WNW,293,0.0,2.0,86,0.00,,,0.00,meteohub,2013-05-07 05:08:00,
2013-05-07 01:10:00,75.9,70.5,29.85,West,270,0.0,1.0,86,0.00,,,0.00,meteohub,2013-05-07 05:10:00,
2013-05-07 01:12:00,75.9,70.5,29.84,NW,315,0.0,1.0,86,0.00,,,0.00,meteohub,2013-05-07 05:12:00,
2013-05-07 01:14:00,75.7,70.5,29.84,East,90,0.0,1.0,86,0.00,,,0.00,meteohub,2013-05-07 05:14:00,
2013-05-07 01:16:00,75.7,70.3,29.84,East,90,0.0,0.0,86,0.00,,,0.00,meteohub,2013-05-07 05:16:00,
2013-05-07 01:17:00,75.7,70.3,29.84,East,90,0.0,0.0,86,0.00,,,0.00,meteohub,2013-05-07 05:17:00,
2013-05-07 01:18:00,75.6,70.3,29.84,East,90,0.0,0.0,86,0.00,,,0.00,meteohub,2013-05-07 05:18:00,
2013-05-07 01:19:00,75.6,70.3,29.84,East,90,0.0,0.0,86,0.00,,,0.00,meteohub,2013-05-07 05:19:00,
2013-05-07 01:20:00,75.6,70.3,29.84,East,90,0.0,0.0,86,0.00,,,0.00,meteohub,2013-05-07 05:20:00,
2013-05-07 01:21:00,75.4,70.3,29.84,NNE,23,3.0,0.0,86,0.00,,,0.00,meteohub,2013-05-07 05:21:00,
2013-05-07 01:25:00,75.2,70.3,29.83,North,0,3.0,3.0,87,0.00,,,0.00,meteohub,2013-05-07 05:25:00,
2013-05-07 01:27:00,75.2,70.3,29.83,North,0,2.0,3.0,87,0.00,,,0.00,meteohub,2013-05-07 05:27:00,
2013-05-07 01:30:00,75.2,70.3,29.83,NE,45,2.0,3.0,87,0.00,,,0.00,meteohub,2013-05-07 05:30:00,
2013-05-07 01:31:00,75.0,70.3,29.84,North,0,2.0,3.0,88,0.00,,,0.00,meteohub,2013-05-07 05:31:00,
2013-05-07 01:32:00,75.0,70.3,29.83,North,0,2.0,3.0,88,0.00,,,0.00,meteohub,2013-05-07 05:32:00,
2013-05-07 01:33:00,75.0,70.3,29.83,North,0,2.0,3.0,88,0.00,,,0.00,meteohub,2013-05-07 05:33:00,
2013-05-07 01:34:00,75.0,70.3,29.83,North,0,2.0,3.0,88,0.00,,,0.00,meteohub,2013-05-07 05:34:00,
2013-05-07 01:35:00,75.0,70.3,29.83,North,0,3.0,3.0,88,0.00,,,0.00,meteohub,2013-05-07 05:35:00,
2013-05-07 01:36:00,75.0,70.3,29.83,North,0,3.0,3.0,88,0.00,,,0.00,meteohub,2013-05-07 05:36:00,
2013-05-07 01:38:00,75.0,70.3,29.83,North,0,3.0,3.0,89,0.00,,,0.00,meteohub,2013-05-07 05:38:00,
2013-05-07 01:41:00,75.0,70.3,29.83,North,0,3.0,3.0,88,0.00,,,0.00,meteohub,2013-05-07 05:41:00,
2013-05-07 01:43:00,75.0,70.3,29.83,North,0,3.0,3.0,88,0.00,,,0.00,meteohub,2013-05-07 05:43:00,
2013-05-07 01:44:00,75.0,70.3,29.83,North,0,3.0,3.0,88,0.00,,,0.00,meteohub,2013-05-07 05:44:00,
2013-05-07 01:46:00,75.0,70.3,29.83,North,0,3.0,3.0,88,0.00,,,0.00,meteohub,2013-05-07 05:46:00,
2013-05-07 01:48:00,74.8,70.3,29.83,NNE,23,2.0,3.0,89,0.00,,,0.00,meteohub,2013-05-07 05:48:00,
2013-05-07 01:50:00,74.8,70.3,29.83,NE,45,2.0,3.0,89,0.00,,,0.00,meteohub,2013-05-07 05:50:00,
2013-05-07 01:52:00,74.8,70.3,29.83,East,90,2.0,3.0,89,0.00,,,0.00,meteohub,2013-05-07 05:52:00,
2013-05-07 01:53:00,74.8,70.3,29.83,East,90,0.0,3.0,89,0.00,,,0.00,meteohub,2013-05-07 05:53:00,
2013-05-07 01:54:00,74.8,70.3,29.83,East,90,0.0,3.0,89,0.00,,,0.00,meteohub,2013-05-07 05:54:00,
2013-05-07 01:55:00,74.7,70.3,29.83,NE,45,2.0,3.0,89,0.00,,,0.00,meteohub,2013-05-07 05:55:00,
2013-05-07 01:59:00,74.7,70.2,29.83,North,0,3.0,3.0,89,0.00,,,0.00,meteohub,2013-05-07 05:59:00,
2013-05-07 02:00:00,74.7,70.2,29.83,North,0,3.0,3.0,89,0.00,,,0.00,meteohub,2013-05-07 06:00:00,
2013-05-07 02:01:00,74.7,70.2,29.82,North,0,4.0,4.0,89,0.00,,,0.00,meteohub,2013-05-07 06:01:00,
2013-05-07 02:02:00,74.7,70.2,29.83,North,0,4.0,4.0,89,0.00,,,0.00,meteohub,2013-05-07 06:02:00,
2013-05-07 02:04:00,74.5,70.2,29.83,North,0,2.0,3.0,89,0.00,,,0.00,meteohub,2013-05-07 06:04:00,
2013-05-07 02:05:00,74.5,70.2,29.83,NNE,23,2.0,4.0,89,0.00,,,0.00,meteohub,2013-05-07 06:05:00,
2013-05-07 02:07:00,74.5,70.2,29.83,NE,45,2.0,4.0,89,0.00,,,0.00,meteohub,2013-05-07 06:07:00,
2013-05-07 02:10:00,74.5,70.2,29.83,North,0,0.0,4.0,89,0.00,,,0.00,meteohub,2013-05-07 06:10:00,
2013-05-07 02:11:00,74.5,70.2,29.83,North,0,0.0,4.0,89,0.00,,,0.00,meteohub,2013-05-07 06:11:00,
2013-05-07 02:12:00,74.5,70.2,29.83,NE,45,2.0,4.0,89,0.00,,,0.00,meteohub,2013-05-07 06:12:00,
2013-05-07 02:14:00,74.3,70.0,29.82,NE,45,2.0,4.0,89,0.00,,,0.00,meteohub,2013-05-07 06:14:00,
2013-05-07 02:17:00,74.3,70.0,29.82,North,0,3.0,4.0,90,0.00,,,0.00,meteohub,2013-05-07 06:17:00,
2013-05-07 02:18:00,74.3,70.0,29.82,North,0,3.0,4.0,90,0.00,,,0.00,meteohub,2013-05-07 06:18:00,
2013-05-07 02:19:00,74.3,70.0,29.82,North,0,3.0,4.0,90,0.00,,,0.00,meteohub,2013-05-07 06:19:00,
2013-05-07 02:22:00,74.3,70.0,29.82,North,0,2.0,4.0,90,0.00,,,0.00,meteohub,2013-05-07 06:22:00,
2013-05-07 02:23:00,74.3,70.0,29.82,NNE,23,2.0,4.0,90,0.00,,,0.00,meteohub,2013-05-07 06:23:00,
2013-05-07 02:24:00,74.3,70.0,29.82,NE,45,2.0,4.0,90,0.00,,,0.00,meteohub,2013-05-07 06:24:00,
2013-05-07 02:27:00,74.3,70.0,29.82,North,0,3.0,4.0,90,0.00,,,0.00,meteohub,2013-05-07 06:27:00,
2013-05-07 02:28:00,74.3,70.0,29.82,NE,45,2.0,4.0,90,0.00,,,0.00,meteohub,2013-05-07 06:28:00,
2013-05-07 02:29:00,74.3,70.0,29.82,NE,45,2.0,4.0,90,0.00,,,0.00,meteohub,2013-05-07 06:29:00,
2013-05-07 02:32:00,73.9,70.0,29.82,East,90,0.0,4.0,90,0.00,,,0.00,meteohub,2013-05-07 06:32:00,
2013-05-07 02:33:00,73.9,70.0,29.82,East,90,0.0,4.0,90,0.00,,,0.00,meteohub,2013-05-07 06:33:00,
2013-05-07 02:34:00,73.9,70.0,29.82,East,90,0.0,4.0,90,0.00,,,0.00,meteohub,2013-05-07 06:34:00,
2013-05-07 02:36:00,73.9,70.0,29.82,NE,45,2.0,3.0,90,0.00,,,0.00,meteohub,2013-05-07 06:36:00,
2013-05-07 02:38:00,73.9,70.0,29.82,NE,45,2.0,3.0,91,0.00,,,0.00,meteohub,2013-05-07 06:38:00,
2013-05-07 02:39:00,73.9,69.8,29.82,NE,45,2.0,3.0,91,0.00,,,0.00,meteohub,2013-05-07 06:39:00,
2013-05-07 02:40:00,73.9,69.8,29.82,NE,45,2.0,3.0,91,0.00,,,0.00,meteohub,2013-05-07 06:40:00,
2013-05-07 02:41:00,73.9,69.8,29.82,NNE,23,3.0,3.0,91,0.00,,,0.00,meteohub,2013-05-07 06:41:00,
2013-05-07 02:42:00,73.9,69.8,29.82,NNE,23,3.0,3.0,91,0.00,,,0.00,meteohub,2013-05-07 06:42:00,
2013-05-07 02:43:00,73.9,69.8,29.81,North,0,3.0,3.0,91,0.00,,,0.00,meteohub,2013-05-07 06:43:00,
2013-05-07 02:45:00,73.9,69.8,29.82,NE,45,3.0,3.0,91,0.00,,,0.00,meteohub,2013-05-07 06:45:00,
2013-05-07 02:46:00,73.9,69.8,29.82,NE,45,3.0,3.0,91,0.00,,,0.00,meteohub,2013-05-07 06:46:00,
2013-05-07 02:47:00,73.9,69.8,29.81,NE,45,3.0,3.0,91,0.00,,,0.00,meteohub,2013-05-07 06:47:00,
2013-05-07 02:51:00,73.9,69.8,29.81,NE,45,2.0,3.0,91,0.00,,,0.00,meteohub,2013-05-07 06:51:00,
2013-05-07 02:53:00,73.8,69.8,29.81,NE,45,2.0,3.0,91,0.00,,,0.00,meteohub,2013-05-07 06:53:00,
2013-05-07 02:54:00,73.8,69.6,29.81,NE,45,2.0,3.0,91,0.00,,,0.00,meteohub,2013-05-07 06:54:00,
2013-05-07 02:57:00,73.8,69.6,29.81,NE,45,2.0,3.0,91,0.00,,,0.00,meteohub,2013-05-07 06:57:00,
2013-05-07 02:58:00,73.8,69.6,29.81,NE,45,2.0,3.0,91,0.00,,,0.00,meteohub,2013-05-07 06:58:00,
2013-05-07 03:00:00,73.8,69.6,29.81,NE,45,2.0,3.0,91,0.00,,,0.00,meteohub,2013-05-07 07:00:00,
2013-05-07 03:02:00,73.8,69.6,29.81,NE,45,2.0,3.0,92,0.00,,,0.00,meteohub,2013-05-07 07:02:00,
2013-05-07 03:05:00,73.6,69.6,29.81,NE,45,4.0,4.0,92,0.00,,,0.00,meteohub,2013-05-07 07:05:00,
2013-05-07 03:07:00,73.6,69.6,29.81,NE,45,3.0,3.0,92,0.00,,,0.00,meteohub,2013-05-07 07:07:00,
2013-05-07 03:08:00,73.4,69.6,29.81,NE,45,2.0,3.0,92,0.00,,,0.00,meteohub,2013-05-07 07:08:00,
2013-05-07 03:10:00,73.4,69.6,29.81,NE,45,2.0,4.0,92,0.00,,,0.00,meteohub,2013-05-07 07:10:00,
2013-05-07 03:12:00,73.4,69.6,29.81,East,90,3.0,4.0,92,0.00,,,0.00,meteohub,2013-05-07 07:12:00,
2013-05-07 03:13:00,73.4,69.6,29.81,North,0,3.0,4.0,92,0.00,,,0.00,meteohub,2013-05-07 07:13:00,
2013-05-07 03:16:00,73.4,69.6,29.81,NE,45,2.0,4.0,92,0.00,,,0.00,meteohub,2013-05-07 07:16:00,
2013-05-07 03:17:00,73.4,69.6,29.81,NE,45,2.0,4.0,92,0.00,,,0.00,meteohub,2013-05-07 07:17:00,
2013-05-07 03:18:00,73.4,69.6,29.81,NE,45,2.0,4.0,92,0.00,,,0.00,meteohub,2013-05-07 07:18:00,
2013-05-07 03:21:00,73.4,69.8,29.81,NE,45,2.0,4.0,92,0.00,,,0.00,meteohub,2013-05-07 07:21:00,
2013-05-07 03:22:00,73.2,69.8,29.81,East,90,2.0,4.0,91,0.00,,,0.00,meteohub,2013-05-07 07:22:00,
2013-05-07 03:24:00,73.2,69.8,29.81,East,90,2.0,4.0,92,0.00,,,0.00,meteohub,2013-05-07 07:24:00,
2013-05-07 03:25:00,73.2,69.8,29.81,NNE,23,2.0,3.0,92,0.00,,,0.00,meteohub,2013-05-07 07:25:00,
2013-05-07 03:27:00,73.2,69.8,29.81,North,0,2.0,3.0,92,0.00,,,0.00,meteohub,2013-05-07 07:27:00,
2013-05-07 03:28:00,73.2,69.8,29.81,NE,45,2.0,3.0,92,0.00,,,0.00,meteohub,2013-05-07 07:28:00,
2013-05-07 03:29:00,73.2,69.8,29.81,NE,45,2.0,3.0,92,0.00,,,0.00,meteohub,2013-05-07 07:29:00,
2013-05-07 03:31:00,73.2,69.8,29.81,NE,45,2.0,2.0,92,0.00,,,0.00,meteohub,2013-05-07 07:31:00,
2013-05-07 03:32:00,73.2,69.8,29.81,NE,45,2.0,2.0,92,0.00,,,0.00,meteohub,2013-05-07 07:32:00,
2013-05-07 03:34:00,73.2,69.8,29.81,NE,45,2.0,2.0,92,0.00,,,0.00,meteohub,2013-05-07 07:34:00,
2013-05-07 03:35:00,73.2,69.8,29.81,NE,45,3.0,3.0,92,0.00,,,0.00,meteohub,2013-05-07 07:35:00,
2013-05-07 03:36:00,73.4,70.2,29.81,NE,45,2.0,3.0,93,0.00,,,0.00,meteohub,2013-05-07 07:36:00,
2013-05-07 03:37:00,73.4,70.0,29.81,NE,45,2.0,3.0,93,0.00,,,0.00,meteohub,2013-05-07 07:37:00,
2013-05-07 03:38:00,73.4,70.2,29.81,NE,45,2.0,3.0,93,0.00,,,0.00,meteohub,2013-05-07 07:38:00,
2013-05-07 03:41:00,73.4,70.2,29.81,NE,45,2.0,3.0,93,0.00,,,0.00,meteohub,2013-05-07 07:41:00,
2013-05-07 03:42:00,73.4,70.2,29.81,East,90,2.0,3.0,93,0.00,,,0.00,meteohub,2013-05-07 07:42:00,
2013-05-07 03:43:00,73.4,70.2,29.81,East,90,2.0,3.0,93,0.00,,,0.00,meteohub,2013-05-07 07:43:00,
2013-05-07 03:47:00,73.4,70.2,29.81,East,90,2.0,3.0,93,0.00,,,0.00,meteohub,2013-05-07 07:47:00,
2013-05-07 03:48:00,73.4,70.2,29.81,East,90,2.0,3.0,93,0.00,,,0.00,meteohub,2013-05-07 07:48:00,
2013-05-07 03:49:00,73.4,70.2,29.82,East,90,2.0,3.0,93,0.00,,,0.00,meteohub,2013-05-07 07:49:00,
2013-05-07 03:50:00,73.4,70.2,29.82,SE,135,2.0,3.0,93,0.00,,,0.00,meteohub,2013-05-07 07:50:00,
2013-05-07 03:54:00,73.4,70.2,29.82,East,90,0.0,3.0,93,0.00,,,0.00,meteohub,2013-05-07 07:54:00,
2013-05-07 03:55:00,73.4,70.2,29.82,East,90,0.0,3.0,93,0.00,,,0.00,meteohub,2013-05-07 07:55:00,
2013-05-07 03:56:00,73.4,70.2,29.82,East,90,0.0,2.0,93,0.00,,,0.00,meteohub,2013-05-07 07:56:00,
2013-05-07 03:59:00,73.2,70.0,29.81,NE,45,2.0,2.0,92,0.00,,,0.00,meteohub,2013-05-07 07:59:00,
2013-05-07 04:01:00,73.2,70.0,29.81,NE,45,3.0,3.0,92,0.00,,,0.00,meteohub,2013-05-07 08:01:00,
2013-05-07 04:02:00,73.4,70.0,29.82,NE,45,3.0,3.0,93,0.00,,,0.00,meteohub,2013-05-07 08:02:00,
2013-05-07 04:04:00,73.4,70.0,29.82,North,0,3.0,3.0,93,0.00,,,0.00,meteohub,2013-05-07 08:04:00,
2013-05-07 04:05:00,73.4,70.0,29.81,NNE,23,3.0,3.0,93,0.00,,,0.00,meteohub,2013-05-07 08:05:00,
2013-05-07 04:06:00,73.4,70.0,29.81,NE,45,3.0,3.0,93,0.00,,,0.00,meteohub,2013-05-07 08:06:00,
2013-05-07 04:08:00,73.2,70.0,29.81,NE,45,2.0,3.0,92,0.00,,,0.00,meteohub,2013-05-07 08:08:00,
2013-05-07 04:09:00,73.2,70.0,29.81,NE,45,2.0,3.0,92,0.00,,,0.00,meteohub,2013-05-07 08:09:00,
2013-05-07 04:11:00,73.2,70.0,29.81,ENE,68,3.0,3.0,93,0.00,,,0.00,meteohub,2013-05-07 08:11:00,
2013-05-07 04:12:00,73.2,70.0,29.81,NE,45,2.0,3.0,93,0.00,,,0.00,meteohub,2013-05-07 08:12:00,
2013-05-07 04:13:00,73.2,70.0,29.81,NE,45,2.0,3.0,93,0.00,,,0.00,meteohub,2013-05-07 08:13:00,
2013-05-07 04:14:00,73.2,70.0,29.81,ENE,68,3.0,3.0,93,0.00,,,0.00,meteohub,2013-05-07 08:14:00,
2013-05-07 04:16:00,73.4,70.0,29.81,NE,45,3.0,3.0,94,0.00,,,0.00,meteohub,2013-05-07 08:16:00,
2013-05-07 04:18:00,73.4,70.0,29.81,NE,45,3.0,3.0,94,0.00,,,0.00,meteohub,2013-05-07 08:18:00,
2013-05-07 04:19:00,73.4,70.0,29.81,North,0,4.0,4.0,94,0.00,,,0.00,meteohub,2013-05-07 08:19:00,
2013-05-07 04:20:00,73.2,70.0,29.81,NNE,23,4.0,4.0,93,0.00,,,0.00,meteohub,2013-05-07 08:20:00,
2013-05-07 04:22:00,73.2,70.3,29.81,NNE,23,4.0,4.0,93,0.00,,,0.00,meteohub,2013-05-07 08:22:00,
2013-05-07 04:24:00,73.2,70.3,29.82,NNE,23,3.0,3.0,93,0.00,,,0.00,meteohub,2013-05-07 08:24:00,
2013-05-07 04:26:00,73.2,70.3,29.82,NE,45,2.0,4.0,93,0.00,,,0.00,meteohub,2013-05-07 08:26:00,
2013-05-07 04:27:00,73.2,70.3,29.82,NE,45,2.0,4.0,93,0.00,,,0.00,meteohub,2013-05-07 08:27:00,
2013-05-07 04:28:00,73.2,70.3,29.82,NE,45,2.0,4.0,93,0.00,,,0.00,meteohub,2013-05-07 08:28:00,
2013-05-07 04:31:00,73.2,70.3,29.82,North,0,3.0,4.0,93,0.00,,,0.00,meteohub,2013-05-07 08:31:00,
2013-05-07 04:32:00,73.0,70.3,29.81,North,0,3.0,4.0,93,0.00,,,0.00,meteohub,2013-05-07 08:32:00,
2013-05-07 04:33:00,73.0,70.3,29.81,North,0,3.0,4.0,93,0.00,,,0.00,meteohub,2013-05-07 08:33:00,
2013-05-07 04:36:00,72.9,70.3,29.82,NE,45,2.0,4.0,93,0.00,,,0.00,meteohub,2013-05-07 08:36:00,
2013-05-07 04:38:00,72.9,70.3,29.82,North,0,2.0,4.0,93,0.00,,,0.00,meteohub,2013-05-07 08:38:00,
2013-05-07 04:39:00,72.9,70.3,29.82,North,0,3.0,4.0,93,0.00,,,0.00,meteohub,2013-05-07 08:39:00,
2013-05-07 04:41:00,72.9,70.3,29.82,North,0,4.0,4.0,93,0.00,,,0.00,meteohub,2013-05-07 08:41:00,
2013-05-07 04:43:00,72.9,70.3,29.82,North,0,4.0,4.0,93,0.00,,,0.00,meteohub,2013-05-07 08:43:00,
2013-05-07 04:44:00,72.9,70.3,29.82,North,0,3.0,3.0,93,0.00,,,0.00,meteohub,2013-05-07 08:44:00,
2013-05-07 04:45:00,72.9,70.3,29.82,NNE,23,3.0,3.0,93,0.00,,,0.00,meteohub,2013-05-07 08:45:00,
2013-05-07 04:46:00,72.9,70.3,29.82,NE,45,3.0,4.0,94,0.00,,,0.00,meteohub,2013-05-07 08:46:00,
2013-05-07 04:50:00,73.0,70.3,29.81,NE,45,3.0,4.0,94,0.00,,,0.00,meteohub,2013-05-07 08:50:00,
2013-05-07 04:51:00,73.0,70.3,29.82,NE,45,2.0,4.0,94,0.00,,,0.00,meteohub,2013-05-07 08:51:00,
2013-05-07 04:52:00,73.0,70.3,29.82,NE,45,2.0,4.0,94,0.00,,,0.00,meteohub,2013-05-07 08:52:00,
2013-05-07 04:55:00,73.0,70.3,29.82,East,90,2.0,4.0,94,0.00,,,0.00,meteohub,2013-05-07 08:55:00,
2013-05-07 04:57:00,73.0,70.3,29.82,NE,45,1.0,4.0,94,0.00,,,0.00,meteohub,2013-05-07 08:57:00,
2013-05-07 04:59:00,73.0,70.3,29.82,NE,45,0.0,4.0,94,0.00,,,0.00,meteohub,2013-05-07 08:59:00,
2013-05-07 05:00:00,73.0,70.3,29.82,NE,45,0.0,4.0,94,0.00,,,0.00,meteohub,2013-05-07 09:00:00,
2013-05-07 05:01:00,72.9,70.3,29.82,NE,45,2.0,3.0,94,0.00,,,0.00,meteohub,2013-05-07 09:01:00,
2013-05-07 05:02:00,72.9,70.2,29.82,NNE,23,2.0,3.0,94,0.00,,,0.00,meteohub,2013-05-07 09:02:00,
2013-05-07 05:04:00,72.9,70.2,29.82,NNE,23,3.0,3.0,94,0.00,,,0.00,meteohub,2013-05-07 09:04:00,
2013-05-07 05:05:00,72.9,70.2,29.82,North,0,2.0,2.0,94,0.00,,,0.00,meteohub,2013-05-07 09:05:00,
2013-05-07 05:06:00,72.9,70.2,29.82,North,0,2.0,2.0,94,0.00,,,0.00,meteohub,2013-05-07 09:06:00,
2013-05-07 05:08:00,72.9,70.2,29.82,NE,45,1.0,2.0,94,0.00,,,0.00,meteohub,2013-05-07 09:08:00,
2013-05-07 05:10:00,72.9,70.2,29.82,East,90,0.0,2.0,94,0.00,,,0.00,meteohub,2013-05-07 09:10:00,
2013-05-07 05:12:00,72.7,70.2,29.82,NE,45,2.0,3.0,94,0.00,,,0.00,meteohub,2013-05-07 09:12:00,
2013-05-07 05:15:00,72.9,70.2,29.83,NE,45,2.0,3.0,94,0.00,,,0.00,meteohub,2013-05-07 09:15:00,
2013-05-07 05:17:00,72.9,70.2,29.83,NE,45,2.0,3.0,94,0.00,,,0.00,meteohub,2013-05-07 09:17:00,
2013-05-07 05:18:00,72.9,70.2,29.82,NE,45,2.0,3.0,94,0.00,,,0.00,meteohub,2013-05-07 09:18:00,
2013-05-07 05:21:00,72.9,70.0,29.83,NNE,23,2.0,2.0,94,0.00,,,0.00,meteohub,2013-05-07 09:21:00,
2013-05-07 05:23:00,72.9,70.0,29.82,North,0,3.0,3.0,94,0.00,,,0.00,meteohub,2013-05-07 09:23:00,
2013-05-07 05:24:00,72.9,70.0,29.83,NNE,23,3.0,3.0,94,0.00,,,0.00,meteohub,2013-05-07 09:24:00,
2013-05-07 05:26:00,72.9,70.0,29.83,NE,45,3.0,3.0,94,0.00,,,0.00,meteohub,2013-05-07 09:26:00,
2013-05-07 05:27:00,72.9,70.0,29.83,NE,45,3.0,3.0,94,0.00,,,0.00,meteohub,2013-05-07 09:27:00,
2013-05-07 05:28:00,72.9,70.0,29.83,NE,45,3.0,3.0,94,0.00,,,0.00,meteohub,2013-05-07 09:28:00,
2013-05-07 05:30:00,72.9,70.0,29.83,NNE,23,3.0,3.0,94,0.00,,,0.00,meteohub,2013-05-07 09:30:00,
2013-05-07 05:32:00,72.7,70.0,29.83,North,0,3.0,3.0,94,0.00,,,0.00,meteohub,2013-05-07 09:32:00,
2013-05-07 05:34:00,72.7,70.0,29.83,North,0,3.0,3.0,94,0.00,,,0.00,meteohub,2013-05-07 09:34:00,
2013-05-07 05:37:00,72.7,70.0,29.83,NE,45,2.0,4.0,94,0.00,,,0.00,meteohub,2013-05-07 09:37:00,
2013-05-07 05:38:00,72.7,70.0,29.83,North,0,2.0,4.0,94,0.00,,,0.00,meteohub,2013-05-07 09:38:00,
2013-05-07 05:39:00,72.7,70.0,29.83,NE,45,2.0,4.0,94,0.00,,,0.00,meteohub,2013-05-07 09:39:00,
2013-05-07 05:40:00,72.7,70.0,29.83,North,0,2.0,4.0,94,0.00,,,0.00,meteohub,2013-05-07 09:40:00,
2013-05-07 05:42:00,72.7,70.0,29.83,North,0,2.0,4.0,95,0.00,,,0.00,meteohub,2013-05-07 09:42:00,
2013-05-07 05:44:00,72.7,70.0,29.83,North,0,2.0,4.0,95,0.00,,,0.00,meteohub,2013-05-07 09:44:00,
2013-05-07 05:45:00,72.9,70.0,29.83,NNE,23,2.0,4.0,95,0.00,,,0.00,meteohub,2013-05-07 09:45:00,
2013-05-07 05:46:00,72.9,70.0,29.83,NE,45,2.0,4.0,95,0.00,,,0.00,meteohub,2013-05-07 09:46:00,
2013-05-07 05:49:00,72.9,70.0,29.83,NE,45,2.0,4.0,95,0.00,,,0.00,meteohub,2013-05-07 09:49:00,
2013-05-07 05:51:00,72.9,70.0,29.84,North,0,3.0,3.0,95,0.00,,,0.00,meteohub,2013-05-07 09:51:00,
2013-05-07 05:52:00,72.9,70.0,29.83,NNE,23,3.0,3.0,95,0.00,,,0.00,meteohub,2013-05-07 09:52:00,
2013-05-07 05:54:00,72.9,70.0,29.83,North,0,3.0,3.0,95,0.00,,,0.00,meteohub,2013-05-07 09:54:00,
2013-05-07 05:55:00,72.7,70.0,29.83,North,0,3.0,3.0,95,0.00,,,0.00,meteohub,2013-05-07 09:55:00,
2013-05-07 05:56:00,72.7,70.0,29.84,NNE,23,3.0,3.0,95,0.00,,,0.00,meteohub,2013-05-07 09:56:00,
2013-05-07 05:57:00,72.7,70.0,29.84,North,0,3.0,3.0,95,0.00,,,0.00,meteohub,2013-05-07 09:57:00,
2013-05-07 05:58:00,72.7,70.0,29.83,North,0,3.0,3.0,95,0.00,,,0.00,meteohub,2013-05-07 09:58:00,
2013-05-07 06:00:00,72.7,69.8,29.84,North,0,2.0,3.0,95,0.00,,,0.00,meteohub,2013-05-07 10:00:00,
2013-05-07 06:01:00,72.7,69.8,29.84,North,0,2.0,3.0,95,0.00,,,0.00,meteohub,2013-05-07 10:01:00,
2013-05-07 06:02:00,72.7,69.8,29.84,North,0,2.0,3.0,95,0.00,,,0.00,meteohub,2013-05-07 10:02:00,
2013-05-07 06:04:00,72.7,69.8,29.84,East,90,0.0,3.0,95,0.00,,,0.00,meteohub,2013-05-07 10:04:00,
2013-05-07 06:06:00,72.7,69.8,29.84,East,90,0.0,3.0,95,0.00,,,0.00,meteohub,2013-05-07 10:06:00,
2013-05-07 06:07:00,72.9,69.8,29.84,East,90,0.0,3.0,95,0.00,,,0.00,meteohub,2013-05-07 10:07:00,
2013-05-07 06:08:00,72.9,69.8,29.84,East,90,0.0,3.0,95,0.00,,,0.00,meteohub,2013-05-07 10:08:00,
2013-05-07 06:10:00,72.9,69.8,29.84,North,0,2.0,3.0,95,0.00,,,0.00,meteohub,2013-05-07 10:10:00,
2013-05-07 06:11:00,73.0,69.8,29.84,NNE,23,2.0,3.0,95,0.00,,,0.00,meteohub,2013-05-07 10:11:00,
2013-05-07 06:12:00,73.0,69.8,29.84,North,0,2.0,3.0,95,0.00,,,0.00,meteohub,2013-05-07 10:12:00,
2013-05-07 06:17:00,73.4,69.8,29.84,NE,45,2.0,2.0,96,0.00,,,0.00,meteohub,2013-05-07 10:17:00,
2013-05-07 06:19:00,73.6,69.8,29.84,NE,45,0.0,2.0,96,0.00,,,0.00,meteohub,2013-05-07 10:19:00,
2013-05-07 06:22:00,73.9,69.8,29.84,NE,45,0.0,3.0,96,0.00,,,0.00,meteohub,2013-05-07 10:22:00,
2013-05-07 06:24:00,73.9,69.8,29.84,East,90,0.0,3.0,95,0.00,,,0.00,meteohub,2013-05-07 10:24:00,
2013-05-07 06:26:00,73.9,69.8,29.85,East,90,0.0,3.0,95,0.00,,,0.00,meteohub,2013-05-07 10:26:00,
2013-05-07 06:27:00,73.9,69.8,29.84,SE,135,0.0,3.0,95,0.00,,,0.00,meteohub,2013-05-07 10:27:00,
2013-05-07 06:29:00,73.9,69.8,29.85,East,90,0.0,3.0,95,0.00,,,0.00,meteohub,2013-05-07 10:29:00,
2013-05-07 06:31:00,73.9,69.8,29.85,East,90,0.0,2.0,94,0.00,,,0.00,meteohub,2013-05-07 10:31:00,
2013-05-07 06:33:00,73.8,69.8,29.85,NW,315,0.0,2.0,94,0.00,,,0.00,meteohub,2013-05-07 10:33:00,
2013-05-07 06:34:00,73.9,69.8,29.85,NE,45,0.0,2.0,94,0.00,,,0.00,meteohub,2013-05-07 10:34:00,
2013-05-07 06:35:00,73.9,69.8,29.85,NE,45,0.0,2.0,94,0.00,,,0.00,meteohub,2013-05-07 10:35:00,
2013-05-07 06:40:00,74.3,69.8,29.85,NW,315,0.0,0.0,93,0.00,,,0.00,meteohub,2013-05-07 10:40:00,
2013-05-07 06:41:00,74.3,69.8,29.85,North,0,2.0,0.0,93,0.00,,,0.00,meteohub,2013-05-07 10:41:00,
2013-05-07 06:42:00,74.3,69.8,29.85,North,0,2.0,0.0,93,0.00,,,0.00,meteohub,2013-05-07 10:42:00,
2013-05-07 06:45:00,74.5,70.3,29.85,North,0,3.0,0.0,93,0.00,,,0.00,meteohub,2013-05-07 10:45:00,
2013-05-07 06:46:00,74.5,70.3,29.86,North,0,3.0,3.0,93,0.00,,,0.00,meteohub,2013-05-07 10:46:00,
2013-05-07 06:47:00,74.7,70.3,29.85,North,0,3.0,3.0,92,0.00,,,0.00,meteohub,2013-05-07 10:47:00,
2013-05-07 06:51:00,75.7,70.3,29.86,North,0,4.0,4.0,91,0.00,,,0.00,meteohub,2013-05-07 10:51:00,
2013-05-07 06:53:00,76.3,70.3,29.86,North,0,3.0,3.0,90,0.00,,,0.00,meteohub,2013-05-07 10:53:00,
2013-05-07 06:54:00,76.5,70.3,29.86,East,90,3.0,3.0,89,0.00,,,0.00,meteohub,2013-05-07 10:54:00,
2013-05-07 06:58:00,78.1,70.5,29.86,NE,45,2.0,4.0,86,0.00,,,0.00,meteohub,2013-05-07 10:58:00,
2013-05-07 06:59:00,79.3,70.5,29.86,NE,45,0.0,4.0,85,0.00,,,0.00,meteohub,2013-05-07 10:59:00,
2013-05-07 07:00:00,79.3,70.5,29.86,NE,45,0.0,4.0,85,0.00,,,0.00,meteohub,2013-05-07 11:00:00,
2013-05-07 07:01:00,79.9,70.5,29.86,NE,45,0.0,4.0,85,0.00,,,0.00,meteohub,2013-05-07 11:01:00,
2013-05-07 07:04:00,81.3,70.7,29.86,NE,45,2.0,4.0,82,0.00,,,0.00,meteohub,2013-05-07 11:04:00,
2013-05-07 07:06:00,81.9,70.7,29.86,North,0,2.0,4.0,78,0.00,,,0.00,meteohub,2013-05-07 11:06:00,
2013-05-07 07:07:00,82.0,70.7,29.86,North,0,2.0,4.0,76,0.00,,,0.00,meteohub,2013-05-07 11:07:00,
2013-05-07 07:12:00,81.7,70.9,29.86,North,0,3.0,3.0,72,0.00,,,0.00,meteohub,2013-05-07 11:12:00,
2013-05-07 07:13:00,81.7,70.9,29.86,NE,45,2.0,3.0,73,0.00,,,0.00,meteohub,2013-05-07 11:13:00,
2013-05-07 07:15:00,81.9,70.9,29.86,NW,315,2.0,3.0,74,0.00,,,0.00,meteohub,2013-05-07 11:15:00,
2013-05-07 07:17:00,82.4,70.9,29.87,North,0,2.0,4.0,74,0.00,,,0.00,meteohub,2013-05-07 11:17:00,
2013-05-07 07:18:00,82.6,70.9,29.86,NW,315,2.0,4.0,74,0.00,,,0.00,meteohub,2013-05-07 11:18:00,
2013-05-07 07:19:00,82.9,70.9,29.87,NW,315,2.0,4.0,73,0.00,,,0.00,meteohub,2013-05-07 11:19:00,
2013-05-07 07:21:00,83.5,70.9,29.86,NW,315,4.0,4.0,73,0.00,,,0.00,meteohub,2013-05-07 11:21:00,
2013-05-07 07:22:00,83.1,70.9,29.86,NNE,23,3.0,4.0,68,0.00,,,0.00,meteohub,2013-05-07 11:22:00,
2013-05-07 07:24:00,83.1,70.9,29.87,North,0,2.0,4.0,68,0.00,,,0.00,meteohub,2013-05-07 11:24:00,
2013-05-07 07:25:00,83.1,70.9,29.87,North,0,2.0,4.0,68,0.00,,,0.00,meteohub,2013-05-07 11:25:00,
2013-05-07 07:27:00,83.7,70.9,29.86,North,0,3.0,4.0,68,0.00,,,0.00,meteohub,2013-05-07 11:27:00,
2013-05-07 07:28:00,83.7,70.9,29.86,North,0,3.0,4.0,68,0.00,,,0.00,meteohub,2013-05-07 11:28:00,
2013-05-07 07:29:00,83.8,70.9,29.87,SE,135,2.0,4.0,68,0.00,,,0.00,meteohub,2013-05-07 11:29:00,
2013-05-07 07:30:00,84.6,70.9,29.87,West,270,2.0,4.0,68,0.00,,,0.00,meteohub,2013-05-07 11:30:00,
2013-05-07 07:32:00,85.6,70.9,29.87,East,90,2.0,4.0,68,0.00,,,0.00,meteohub,2013-05-07 11:32:00,
2013-05-07 07:33:00,85.8,70.9,29.87,NW,315,3.0,4.0,67,0.00,,,0.00,meteohub,2013-05-07 11:33:00,
2013-05-07 07:35:00,86.2,70.9,29.87,NW,315,4.0,4.0,64,0.00,,,0.00,meteohub,2013-05-07 11:35:00,
2013-05-07 07:36:00,86.2,70.9,29.87,West,270,4.0,4.0,64,0.00,,,0.00,meteohub,2013-05-07 11:36:00,
2013-05-07 07:37:00,86.0,70.9,29.87,West,270,2.0,4.0,64,0.00,,,0.00,meteohub,2013-05-07 11:37:00,
2013-05-07 07:38:00,86.0,70.5,29.87,West,270,2.0,4.0,64,0.00,,,0.00,meteohub,2013-05-07 11:38:00,
2013-05-07 07:40:00,86.4,70.5,29.87,SW,225,4.0,4.0,64,0.00,,,0.00,meteohub,2013-05-07 11:40:00,
2013-05-07 07:42:00,86.2,70.5,29.87,NW,315,3.0,4.0,64,0.00,,,0.00,meteohub,2013-05-07 11:42:00,
2013-05-07 07:44:00,86.2,70.7,29.87,East,90,3.0,4.0,64,0.00,,,0.00,meteohub,2013-05-07 11:44:00,
2013-05-07 07:46:00,86.2,70.7,29.87,NW,315,2.0,4.0,64,0.00,,,0.00,meteohub,2013-05-07 11:46:00,
2013-05-07 07:48:00,86.5,70.9,29.88,NW,315,3.0,4.0,64,0.00,,,0.00,meteohub,2013-05-07 11:48:00,
2013-05-07 07:51:00,86.5,70.9,29.87,NW,315,2.0,4.0,64,0.00,,,0.00,meteohub,2013-05-07 11:51:00,
2013-05-07 07:53:00,86.9,70.9,29.88,South,180,2.0,4.0,64,0.00,,,0.00,meteohub,2013-05-07 11:53:00,
2013-05-07 07:56:00,87.6,71.1,29.88,North,0,3.0,4.0,64,0.00,,,0.00,meteohub,2013-05-07 11:56:00,
2013-05-07 07:57:00,87.6,71.1,29.88,NW,315,4.0,4.0,63,0.00,,,0.00,meteohub,2013-05-07 11:57:00,
2013-05-07 07:59:00,87.6,71.1,29.88,NW,315,2.0,4.0,63,0.00,,,0.00,meteohub,2013-05-07 11:59:00,
2013-05-07 08:01:00,88.2,71.1,29.88,South,180,2.0,4.0,62,0.00,,,0.00,meteohub,2013-05-07 12:01:00,
2013-05-07 08:03:00,88.7,71.6,29.88,NW,315,4.0,4.0,60,0.00,,,0.00,meteohub,2013-05-07 12:03:00,
2013-05-07 08:04:00,88.3,71.6,29.88,NW,315,4.0,4.0,60,0.00,,,0.00,meteohub,2013-05-07 12:04:00,
2013-05-07 08:06:00,87.6,71.6,29.88,NW,315,4.0,4.0,63,0.00,,,0.00,meteohub,2013-05-07 12:06:00,
2013-05-07 08:08:00,87.3,71.2,29.88,West,270,4.0,4.0,63,0.00,,,0.00,meteohub,2013-05-07 12:08:00,
2013-05-07 08:09:00,87.3,71.4,29.88,NW,315,4.0,4.0,63,0.00,,,0.00,meteohub,2013-05-07 12:09:00,
2013-05-07 08:10:00,87.3,71.4,29.88,NW,315,4.0,4.0,63,0.00,,,0.00,meteohub,2013-05-07 12:10:00,
2013-05-07 08:12:00,87.1,71.4,29.88,South,180,6.0,6.0,63,0.00,,,0.00,meteohub,2013-05-07 12:12:00,
2013-05-07 08:15:00,86.7,71.4,29.88,SW,225,8.0,8.0,64,0.00,,,0.00,meteohub,2013-05-07 12:15:00,
2013-05-07 08:16:00,86.7,71.4,29.88,SW,225,5.0,8.0,64,0.00,,,0.00,meteohub,2013-05-07 12:16:00,
2013-05-07 08:17:00,86.5,71.4,29.88,SW,225,7.0,8.0,64,0.00,,,0.00,meteohub,2013-05-07 12:17:00,
2013-05-07 08:20:00,86.2,71.6,29.88,NW,315,6.0,8.0,64,0.00,,,0.00,meteohub,2013-05-07 12:20:00,
2013-05-07 08:21:00,86.2,71.6,29.88,SW,225,5.0,8.0,64,0.00,,,0.00,meteohub,2013-05-07 12:21:00,
2013-05-07 08:22:00,86.2,71.6,29.88,West,270,5.0,8.0,64,0.00,,,0.00,meteohub,2013-05-07 12:22:00,
2013-05-07 08:26:00,86.7,71.6,29.88,NW,315,5.0,8.0,64,0.00,,,0.00,meteohub,2013-05-07 12:26:00,
2013-05-07 08:27:00,87.1,71.8,29.88,SW,225,6.0,8.0,64,0.00,,,0.00,meteohub,2013-05-07 12:27:00,
2013-05-07 08:28:00,87.3,71.8,29.88,South,180,4.0,8.0,63,0.00,,,0.00,meteohub,2013-05-07 12:28:00,
2013-05-07 08:31:00,87.3,71.8,29.89,SW,225,4.0,8.0,64,0.00,,,0.00,meteohub,2013-05-07 12:31:00,
2013-05-07 08:32:00,87.3,71.8,29.89,West,270,4.0,8.0,64,0.00,,,0.00,meteohub,2013-05-07 12:32:00,
2013-05-07 08:33:00,87.3,71.8,29.89,SW,225,8.0,8.0,64,0.00,,,0.00,meteohub,2013-05-07 12:33:00,
2013-05-07 08:34:00,87.6,71.8,29.89,West,270,7.0,8.0,64,0.00,,,0.00,meteohub,2013-05-07 12:34:00,
2013-05-07 08:37:00,87.4,72.0,29.89,SW,225,8.0,8.0,65,0.00,,,0.00,meteohub,2013-05-07 12:37:00,
2013-05-07 08:38:00,87.4,72.0,29.89,SW,225,8.0,8.0,65,0.00,,,0.00,meteohub,2013-05-07 12:38:00,
2013-05-07 08:39:00,87.3,72.0,29.89,NW,315,8.0,8.0,65,0.00,,,0.00,meteohub,2013-05-07 12:39:00,
2013-05-07 08:41:00,87.3,72.0,29.89,WNW,293,4.0,8.0,65,0.00,,,0.00,meteohub,2013-05-07 12:41:00,
2013-05-07 08:44:00,87.3,71.6,29.89,West,270,7.0,8.0,64,0.00,,,0.00,meteohub,2013-05-07 12:44:00,
2013-05-07 08:45:00,87.1,71.6,29.89,West,270,8.0,8.0,64,0.00,,,0.00,meteohub,2013-05-07 12:45:00,
2013-05-07 08:49:00,87.4,71.6,29.89,South,180,10.0,10.0,65,0.00,,,0.00,meteohub,2013-05-07 12:49:00,
2013-05-07 08:51:00,87.6,72.0,29.90,WSW,248,8.0,10.0,66,0.00,,,0.00,meteohub,2013-05-07 12:51:00,
2013-05-07 08:52:00,87.6,72.0,29.89,South,180,8.0,10.0,66,0.00,,,0.00,meteohub,2013-05-07 12:52:00,
2013-05-07 08:54:00,87.8,72.1,29.89,SW,225,8.0,10.0,65,0.00,,,0.00,meteohub,2013-05-07 12:54:00,
2013-05-07 08:55:00,87.8,72.1,29.89,SW,225,8.0,10.0,65,0.00,,,0.00,meteohub,2013-05-07 12:55:00,
2013-05-07 08:57:00,88.0,72.1,29.89,SW,225,10.0,10.0,65,0.00,,,0.00,meteohub,2013-05-07 12:57:00,
2013-05-07 08:58:00,88.0,72.1,29.90,SSW,203,12.0,12.0,65,0.00,,,0.00,meteohub,2013-05-07 12:58:00,
2013-05-07 08:59:00,87.8,72.1,29.89,SW,225,13.0,13.0,64,0.00,,,0.00,meteohub,2013-05-07 12:59:00,
2013-05-07 09:01:00,87.1,72.1,29.90,South,180,10.0,12.0,66,0.00,,,0.00,meteohub,2013-05-07 13:01:00,
2013-05-07 09:02:00,86.9,72.3,29.90,SW,225,9.0,12.0,67,0.00,,,0.00,meteohub,2013-05-07 13:02:00,
2013-05-07 09:03:00,86.9,72.3,29.90,SW,225,11.0,12.0,68,0.00,,,0.00,meteohub,2013-05-07 13:03:00,
2013-05-07 09:04:00,86.9,72.3,29.90,SW,225,13.0,13.0,69,0.00,,,0.00,meteohub,2013-05-07 13:04:00,
2013-05-07 09:06:00,86.7,72.3,29.90,SW,225,11.0,13.0,69,0.00,,,0.00,meteohub,2013-05-07 13:06:00,
2013-05-07 09:07:00,86.5,72.3,29.90,SW,225,8.0,13.0,69,0.00,,,0.00,meteohub,2013-05-07 13:07:00,
2013-05-07 09:09:00,86.5,72.9,29.90,SW,225,8.0,13.0,67,0.00,,,0.00,meteohub,2013-05-07 13:09:00,
2013-05-07 09:10:00,86.7,72.3,29.90,SW,225,8.0,13.0,67,0.00,,,0.00,meteohub,2013-05-07 13:10:00,
2013-05-07 09:12:00,86.9,72.3,29.90,SW,225,10.0,13.0,67,0.00,,,0.00,meteohub,2013-05-07 13:12:00,
2013-05-07 09:15:00,86.9,72.3,29.90,SW,225,8.0,13.0,67,0.00,,,0.00,meteohub,2013-05-07 13:15:00,
2013-05-07 09:16:00,87.1,72.5,29.90,NW,315,10.0,13.0,67,0.00,,,0.00,meteohub,2013-05-07 13:16:00,
2013-05-07 09:20:00,87.1,72.5,29.90,SW,225,10.0,13.0,68,0.00,,,0.00,meteohub,2013-05-07 13:20:00,
2013-05-07 09:21:00,87.3,72.5,29.90,SW,225,9.0,11.0,68,0.00,,,0.00,meteohub,2013-05-07 13:21:00,
2013-05-07 09:22:00,87.3,72.5,29.90,SW,225,6.0,11.0,67,0.00,,,0.00,meteohub,2013-05-07 13:22:00,
2013-05-07 09:25:00,87.6,73.0,29.90,SW,225,7.0,10.0,65,0.00,,,0.00,meteohub,2013-05-07 13:25:00,
2013-05-07 09:26:00,87.6,73.0,29.90,WNW,293,9.0,10.0,65,0.00,,,0.00,meteohub,2013-05-07 13:26:00,
2013-05-07 09:27:00,87.4,73.0,29.90,North,0,8.0,10.0,65,0.00,,,0.00,meteohub,2013-05-07 13:27:00,
2013-05-07 09:28:00,87.3,73.0,29.91,NW,315,8.0,10.0,65,0.00,,,0.00,meteohub,2013-05-07 13:28:00,
2013-05-07 09:31:00,86.9,72.5,29.91,SW,225,8.0,10.0,65,0.00,,,0.00,meteohub,2013-05-07 13:31:00,
2013-05-07 09:32:00,87.1,72.7,29.90,NW,315,9.0,10.0,66,0.00,,,0.00,meteohub,2013-05-07 13:32:00,
2013-05-07 09:33:00,87.3,72.7,29.91,SW,225,5.0,10.0,65,0.00,,,0.00,meteohub,2013-05-07 13:33:00,
2013-05-07 09:34:00,87.3,72.5,29.90,SW,225,8.0,10.0,66,0.00,,,0.00,meteohub,2013-05-07 13:34:00,
2013-05-07 09:36:00,87.6,72.7,29.90,South,180,8.0,10.0,66,0.00,,,0.00,meteohub,2013-05-07 13:36:00,
2013-05-07 09:37:00,87.8,72.5,29.90,SW,225,10.0,10.0,64,0.00,,,0.00,meteohub,2013-05-07 13:37:00,
2013-05-07 09:39:00,87.8,72.7,29.90,West,270,7.0,10.0,64,0.00,,,0.00,meteohub,2013-05-07 13:39:00,
2013-05-07 09:41:00,87.8,72.7,29.90,SW,225,11.0,11.0,64,0.00,,,0.00,meteohub,2013-05-07 13:41:00,
2013-05-07 09:42:00,87.6,72.7,29.90,SW,225,9.0,10.0,65,0.00,,,0.00,meteohub,2013-05-07 13:42:00,
2013-05-07 09:43:00,87.6,72.7,29.90,SW,225,9.0,10.0,65,0.00,,,0.00,meteohub,2013-05-07 13:43:00,
2013-05-07 09:45:00,87.3,72.7,29.90,SW,225,8.0,12.0,65,0.00,,,0.00,meteohub,2013-05-07 13:45:00,
2013-05-07 09:47:00,87.4,72.7,29.90,West,270,8.0,12.0,66,0.00,,,0.00,meteohub,2013-05-07 13:47:00,
2013-05-07 09:48:00,87.4,72.7,29.91,West,270,7.0,12.0,64,0.00,,,0.00,meteohub,2013-05-07 13:48:00,
2013-05-07 09:52:00,87.6,72.9,29.90,SW,225,11.0,12.0,66,0.00,,,0.00,meteohub,2013-05-07 13:52:00,
2013-05-07 09:53:00,87.6,72.9,29.90,SW,225,8.0,12.0,67,0.00,,,0.00,meteohub,2013-05-07 13:53:00,
2013-05-07 09:56:00,87.8,72.9,29.90,South,180,13.0,13.0,65,0.00,,,0.00,meteohub,2013-05-07 13:56:00,
2013-05-07 09:58:00,87.4,72.9,29.90,South,180,11.0,12.0,65,0.00,,,0.00,meteohub,2013-05-07 13:58:00,
2013-05-07 09:59:00,87.4,72.9,29.90,North,0,11.0,12.0,66,0.00,,,0.00,meteohub,2013-05-07 13:59:00,
2013-05-07 10:01:00,87.3,72.9,29.90,SW,225,11.0,13.0,66,0.00,,,0.00,meteohub,2013-05-07 14:01:00,
2013-05-07 10:03:00,87.3,72.9,29.90,South,180,7.0,13.0,66,0.00,,,0.00,meteohub,2013-05-07 14:03:00,
2013-05-07 10:04:00,87.4,72.9,29.91,South,180,10.0,13.0,65,0.00,,,0.00,meteohub,2013-05-07 14:04:00,
2013-05-07 10:07:00,87.6,72.9,29.90,SW,225,10.0,13.0,65,0.00,,,0.00,meteohub,2013-05-07 14:07:00,
2013-05-07 10:08:00,87.6,72.9,29.90,South,180,9.0,13.0,64,0.00,,,0.00,meteohub,2013-05-07 14:08:00,
2013-05-07 10:09:00,87.8,72.9,29.90,SW,225,10.0,13.0,63,0.00,,,0.00,meteohub,2013-05-07 14:09:00,
2013-05-07 10:11:00,88.0,73.0,29.90,SW,225,11.0,13.0,63,0.00,,,0.00,meteohub,2013-05-07 14:11:00,
2013-05-07 10:13:00,87.8,73.0,29.91,South,180,11.0,13.0,63,0.00,,,0.00,meteohub,2013-05-07 14:13:00,
2013-05-07 10:14:00,87.6,73.0,29.91,SW,225,8.0,13.0,64,0.00,,,0.00,meteohub,2013-05-07 14:14:00,
2013-05-07 10:19:00,88.0,72.7,29.90,SW,225,14.0,14.0,63,0.00,,,0.00,meteohub,2013-05-07 14:19:00,
2013-05-07 10:20:00,88.0,72.7,29.91,South,180,14.0,14.0,64,0.00,,,0.00,meteohub,2013-05-07 14:20:00,
2013-05-07 10:21:00,87.4,72.7,29.90,SW,225,12.0,12.0,66,0.00,,,0.00,meteohub,2013-05-07 14:21:00,
2013-05-07 10:24:00,86.9,73.0,29.90,SE,135,10.0,12.0,69,0.00,,,0.00,meteohub,2013-05-07 14:24:00,
2013-05-07 10:25:00,86.9,73.2,29.91,SE,135,10.0,14.0,69,0.00,,,0.00,meteohub,2013-05-07 14:25:00,
2013-05-07 10:26:00,87.1,73.2,29.90,South,180,8.0,14.0,68,0.00,,,0.00,meteohub,2013-05-07 14:26:00,
2013-05-07 10:27:00,87.1,73.2,29.90,South,180,11.0,14.0,68,0.00,,,0.00,meteohub,2013-05-07 14:27:00,
2013-05-07 10:29:00,87.4,73.2,29.90,SW,225,8.0,14.0,69,0.00,,,0.00,meteohub,2013-05-07 14:29:00,
2013-05-07 10:32:00,87.8,73.2,29.90,South,180,15.0,15.0,67,0.00,,,0.00,meteohub,2013-05-07 14:32:00,
2013-05-07 10:33:00,87.8,73.2,29.91,SSE,158,11.0,14.0,66,0.00,,,0.00,meteohub,2013-05-07 14:33:00,
2013-05-07 10:35:00,87.4,73.2,29.91,SW,225,10.0,14.0,68,0.00,,,0.00,meteohub,2013-05-07 14:35:00,
2013-05-07 10:36:00,87.4,73.2,29.91,South,180,11.0,15.0,69,0.00,,,0.00,meteohub,2013-05-07 14:36:00,
2013-05-07 10:37:00,87.6,73.2,29.91,SW,225,10.0,15.0,68,0.00,,,0.00,meteohub,2013-05-07 14:37:00,
2013-05-07 10:38:00,87.6,73.2,29.91,South,180,3.0,15.0,68,0.00,,,0.00,meteohub,2013-05-07 14:38:00,
2013-05-07 10:39:00,87.8,73.2,29.91,South,180,11.0,15.0,67,0.00,,,0.00,meteohub,2013-05-07 14:39:00,
2013-05-07 10:40:00,88.0,73.2,29.91,South,180,8.0,15.0,67,0.00,,,0.00,meteohub,2013-05-07 14:40:00,
2013-05-07 10:41:00,88.0,73.2,29.91,South,180,5.0,15.0,67,0.00,,,0.00,meteohub,2013-05-07 14:41:00,
2013-05-07 10:43:00,88.3,73.4,29.91,South,180,11.0,15.0,66,0.00,,,0.00,meteohub,2013-05-07 14:43:00,
2013-05-07 10:44:00,87.8,73.4,29.91,South,180,9.0,15.0,66,0.00,,,0.00,meteohub,2013-05-07 14:44:00,
2013-05-07 10:45:00,87.8,73.4,29.91,South,180,9.0,15.0,66,0.00,,,0.00,meteohub,2013-05-07 14:45:00,
2013-05-07 10:49:00,86.4,73.4,29.91,South,180,7.0,15.0,70,0.00,,,0.00,meteohub,2013-05-07 14:49:00,
2013-05-07 10:50:00,86.2,73.4,29.91,South,180,11.0,15.0,70,0.00,,,0.00,meteohub,2013-05-07 14:50:00,
2013-05-07 10:51:00,86.0,73.4,29.91,SW,225,8.0,11.0,71,0.00,,,0.00,meteohub,2013-05-07 14:51:00,
2013-05-07 10:52:00,85.8,73.4,29.91,SW,225,8.0,11.0,72,0.00,,,0.00,meteohub,2013-05-07 14:52:00,
2013-05-07 10:54:00,85.1,73.4,29.91,South,180,8.0,11.0,72,0.00,,,0.00,meteohub,2013-05-07 14:54:00,
2013-05-07 10:55:00,84.9,73.4,29.91,SW,225,8.0,11.0,73,0.00,,,0.00,meteohub,2013-05-07 14:55:00,
2013-05-07 10:57:00,84.7,73.4,29.91,SW,225,9.0,11.0,74,0.00,,,0.00,meteohub,2013-05-07 14:57:00,
2013-05-07 10:58:00,84.7,73.4,29.91,South,180,8.0,11.0,74,0.00,,,0.00,meteohub,2013-05-07 14:58:00,
2013-05-07 11:01:00,84.7,73.4,29.91,SSW,203,5.0,11.0,73,0.00,,,0.00,meteohub,2013-05-07 15:01:00,
2013-05-07 11:03:00,84.7,73.4,29.91,South,180,7.0,11.0,73,0.00,,,0.00,meteohub,2013-05-07 15:03:00,
2013-05-07 11:04:00,85.5,73.4,29.91,SW,225,10.0,11.0,74,0.00,,,0.00,meteohub,2013-05-07 15:04:00,
2013-05-07 11:07:00,86.4,73.8,29.91,SW,225,10.0,11.0,73,0.00,,,0.00,meteohub,2013-05-07 15:07:00,
2013-05-07 11:09:00,86.7,73.8,29.90,SSW,203,5.0,11.0,73,0.00,,,0.00,meteohub,2013-05-07 15:09:00,
2013-05-07 11:11:00,87.3,73.8,29.91,South,180,7.0,11.0,72,0.00,,,0.00,meteohub,2013-05-07 15:11:00,
2013-05-07 11:12:00,87.4,73.8,29.91,South,180,9.0,11.0,70,0.00,,,0.00,meteohub,2013-05-07 15:12:00,
2013-05-07 11:13:00,87.8,73.8,29.91,SW,225,12.0,12.0,67,0.00,,,0.00,meteohub,2013-05-07 15:13:00,
2013-05-07 11:14:00,87.8,73.8,29.91,South,180,12.0,12.0,67,0.00,,,0.00,meteohub,2013-05-07 15:14:00,
2013-05-07 11:16:00,87.1,73.8,29.91,South,180,9.0,12.0,69,0.00,,,0.00,meteohub,2013-05-07 15:16:00,
2013-05-07 11:18:00,86.5,73.8,29.91,South,180,12.0,12.0,70,0.00,,,0.00,meteohub,2013-05-07 15:18:00,
2013-05-07 11:20:00,86.4,73.8,29.91,South,180,13.0,13.0,72,0.00,,,0.00,meteohub,2013-05-07 15:20:00,
2013-05-07 11:21:00,86.5,73.8,29.90,SW,225,12.0,12.0,71,0.00,,,0.00,meteohub,2013-05-07 15:21:00,
2013-05-07 11:24:00,86.5,73.9,29.90,SSW,203,13.0,13.0,71,0.00,,,0.00,meteohub,2013-05-07 15:24:00,
2013-05-07 11:27:00,86.7,73.9,29.91,South,180,9.0,13.0,71,0.00,,,0.00,meteohub,2013-05-07 15:27:00,
2013-05-07 11:28:00,86.9,73.9,29.91,SW,225,11.0,13.0,69,0.00,,,0.00,meteohub,2013-05-07 15:28:00,
2013-05-07 11:29:00,87.1,73.9,29.91,SW,225,8.0,13.0,69,0.00,,,0.00,meteohub,2013-05-07 15:29:00,
2013-05-07 11:33:00,87.1,73.9,29.90,SSW,203,11.0,13.0,69,0.00,,,0.00,meteohub,2013-05-07 15:33:00,
2013-05-07 11:34:00,87.1,73.9,29.91,SW,225,10.0,13.0,68,0.00,,,0.00,meteohub,2013-05-07 15:34:00,
2013-05-07 11:36:00,86.9,73.9,29.90,SW,225,11.0,13.0,68,0.00,,,0.00,meteohub,2013-05-07 15:36:00,
2013-05-07 11:37:00,87.1,73.9,29.91,SW,225,9.0,13.0,67,0.00,,,0.00,meteohub,2013-05-07 15:37:00,
2013-05-07 11:38:00,87.1,73.8,29.90,SW,225,9.0,13.0,66,0.00,,,0.00,meteohub,2013-05-07 15:38:00,
2013-05-07 11:40:00,87.3,73.8,29.90,South,180,6.0,13.0,67,0.00,,,0.00,meteohub,2013-05-07 15:40:00,
2013-05-07 11:43:00,88.0,73.8,29.90,South,180,9.0,11.0,64,0.00,,,0.00,meteohub,2013-05-07 15:43:00,
2013-05-07 11:45:00,88.0,73.8,29.90,SSW,203,8.0,11.0,64,0.00,,,0.00,meteohub,2013-05-07 15:45:00,
2013-05-07 11:46:00,88.0,73.4,29.90,South,180,11.0,13.0,65,0.00,,,0.00,meteohub,2013-05-07 15:46:00,
2013-05-07 11:49:00,88.0,73.6,29.90,SW,225,11.0,13.0,64,0.00,,,0.00,meteohub,2013-05-07 15:49:00,
2013-05-07 11:52:00,87.8,73.6,29.90,SW,225,8.0,13.0,64,0.00,,,0.00,meteohub,2013-05-07 15:52:00,
2013-05-07 11:53:00,88.0,73.6,29.90,SW,225,9.0,13.0,65,0.00,,,0.00,meteohub,2013-05-07 15:53:00,
2013-05-07 11:55:00,88.3,73.6,29.90,SW,225,8.0,13.0,64,0.00,,,0.00,meteohub,2013-05-07 15:55:00,
2013-05-07 11:57:00,88.3,73.6,29.90,WSW,248,6.0,13.0,63,0.00,,,0.00,meteohub,2013-05-07 15:57:00,
2013-05-07 11:58:00,88.3,73.6,29.90,SW,225,8.0,13.0,64,0.00,,,0.00,meteohub,2013-05-07 15:58:00,
2013-05-07 12:00:00,88.0,73.6,29.90,NW,315,6.0,12.0,63,0.00,,,0.00,meteohub,2013-05-07 16:00:00,
2013-05-07 12:02:00,88.3,73.6,29.90,West,270,7.0,12.0,64,0.00,,,0.00,meteohub,2013-05-07 16:02:00,
2013-05-07 12:03:00,88.7,73.6,29.90,SW,225,11.0,12.0,64,0.00,,,0.00,meteohub,2013-05-07 16:03:00,
2013-05-07 12:05:00,88.9,73.8,29.90,SSW,203,12.0,12.0,64,0.00,,,0.00,meteohub,2013-05-07 16:05:00,
2013-05-07 12:07:00,88.5,73.8,29.90,South,180,8.0,11.0,64,0.00,,,0.00,meteohub,2013-05-07 16:07:00,
2013-05-07 12:08:00,88.3,73.8,29.90,SSW,203,9.0,11.0,64,0.00,,,0.00,meteohub,2013-05-07 16:08:00,
2013-05-07 12:10:00,88.0,73.8,29.90,SSW,203,5.0,11.0,66,0.00,,,0.00,meteohub,2013-05-07 16:10:00,
2013-05-07 12:12:00,88.3,73.8,29.89,SW,225,12.0,13.0,64,0.00,,,0.00,meteohub,2013-05-07 16:12:00,
2013-05-07 12:13:00,88.3,73.8,29.89,SW,225,12.0,13.0,64,0.00,,,0.00,meteohub,2013-05-07 16:13:00,
2013-05-07 12:14:00,88.3,73.8,29.89,South,180,13.0,13.0,62,0.00,,,0.00,meteohub,2013-05-07 16:14:00,
2013-05-07 12:15:00,88.3,73.8,29.89,South,180,13.0,13.0,62,0.00,,,0.00,meteohub,2013-05-07 16:15:00,
2013-05-07 12:16:00,88.3,73.8,29.89,SW,225,13.0,13.0,63,0.00,,,0.00,meteohub,2013-05-07 16:16:00,
2013-05-07 12:18:00,88.0,73.4,29.90,West,270,8.0,13.0,64,0.00,,,0.00,meteohub,2013-05-07 16:18:00,
2013-05-07 12:21:00,88.0,73.4,29.89,SW,225,11.0,13.0,64,0.00,,,0.00,meteohub,2013-05-07 16:21:00,
2013-05-07 12:23:00,88.0,73.4,29.89,SW,225,12.0,13.0,64,0.00,,,0.00,meteohub,2013-05-07 16:23:00,
2013-05-07 12:25:00,88.0,73.6,29.89,SW,225,11.0,13.0,65,0.00,,,0.00,meteohub,2013-05-07 16:25:00,
2013-05-07 12:26:00,88.0,73.6,29.89,SE,135,11.0,13.0,65,0.00,,,0.00,meteohub,2013-05-07 16:26:00,
2013-05-07 12:29:00,88.0,74.1,29.89,SE,135,7.0,13.0,66,0.00,,,0.00,meteohub,2013-05-07 16:29:00,
2013-05-07 12:30:00,88.0,74.1,29.89,SE,135,7.0,13.0,66,0.00,,,0.00,meteohub,2013-05-07 16:30:00,
2013-05-07 12:32:00,88.3,74.1,29.89,SW,225,8.0,14.0,66,0.00,,,0.00,meteohub,2013-05-07 16:32:00,
2013-05-07 12:35:00,88.0,74.1,29.89,South,180,7.0,14.0,66,0.00,,,0.00,meteohub,2013-05-07 16:35:00,
2013-05-07 12:36:00,88.0,74.1,29.89,SW,225,8.0,14.0,66,0.00,,,0.00,meteohub,2013-05-07 16:36:00,
2013-05-07 12:38:00,88.0,74.1,29.89,SW,225,8.0,14.0,66,0.00,,,0.00,meteohub,2013-05-07 16:38:00,
2013-05-07 12:41:00,88.0,74.1,29.88,SSW,203,9.0,14.0,67,0.00,,,0.00,meteohub,2013-05-07 16:41:00,
2013-05-07 12:42:00,88.0,74.1,29.89,SW,225,11.0,14.0,67,0.00,,,0.00,meteohub,2013-05-07 16:42:00,
2013-05-07 12:45:00,88.0,74.3,29.89,SSW,203,11.0,11.0,66,0.00,,,0.00,meteohub,2013-05-07 16:45:00,
2013-05-07 12:47:00,87.8,74.3,29.89,SW,225,10.0,11.0,66,0.00,,,0.00,meteohub,2013-05-07 16:47:00,
2013-05-07 12:49:00,87.1,74.3,29.89,SW,225,9.0,11.0,69,0.00,,,0.00,meteohub,2013-05-07 16:49:00,
2013-05-07 12:50:00,86.9,74.1,29.89,South,180,9.0,12.0,69,0.00,,,0.00,meteohub,2013-05-07 16:50:00,
2013-05-07 12:51:00,86.9,74.1,29.89,South,180,9.0,12.0,69,0.00,,,0.00,meteohub,2013-05-07 16:51:00,
2013-05-07 12:52:00,87.1,74.1,29.89,South,180,13.0,13.0,70,0.00,,,0.00,meteohub,2013-05-07 16:52:00,
2013-05-07 12:55:00,87.1,74.1,29.89,SW,225,10.0,12.0,70,0.00,,,0.00,meteohub,2013-05-07 16:55:00,
2013-05-07 12:56:00,87.1,74.3,29.88,South,180,11.0,13.0,70,0.00,,,0.00,meteohub,2013-05-07 16:56:00,
2013-05-07 12:57:00,86.9,74.3,29.88,South,180,10.0,13.0,71,0.00,,,0.00,meteohub,2013-05-07 16:57:00,
2013-05-07 12:59:00,87.1,74.3,29.89,SSW,203,10.0,13.0,72,0.00,,,0.00,meteohub,2013-05-07 16:59:00,
2013-05-07 13:00:00,87.1,74.3,29.88,SSW,203,10.0,13.0,72,0.00,,,0.00,meteohub,2013-05-07 17:00:00,
2013-05-07 13:02:00,86.9,74.7,29.89,South,180,8.0,13.0,72,0.00,,,0.00,meteohub,2013-05-07 17:02:00,
2013-05-07 13:04:00,86.7,74.7,29.88,SE,135,9.0,13.0,73,0.00,,,0.00,meteohub,2013-05-07 17:04:00,
2013-05-07 13:05:00,86.9,74.8,29.88,South,180,11.0,13.0,73,0.00,,,0.00,meteohub,2013-05-07 17:05:00,
2013-05-07 13:07:00,87.1,74.8,29.88,SSW,203,11.0,13.0,73,0.00,,,0.00,meteohub,2013-05-07 17:07:00,
2013-05-07 13:10:00,87.3,74.8,29.88,South,180,7.0,13.0,72,0.00,,,0.00,meteohub,2013-05-07 17:10:00,
2013-05-07 13:12:00,87.4,74.8,29.88,SW,225,9.0,12.0,73,0.00,,,0.00,meteohub,2013-05-07 17:12:00,
2013-05-07 13:13:00,87.8,75.2,29.88,SSW,203,11.0,12.0,72,0.00,,,0.00,meteohub,2013-05-07 17:13:00,
2013-05-07 13:15:00,87.8,75.2,29.88,SW,225,11.0,12.0,71,0.00,,,0.00,meteohub,2013-05-07 17:15:00,
2013-05-07 13:17:00,87.4,75.2,29.88,SW,225,8.0,12.0,72,0.00,,,0.00,meteohub,2013-05-07 17:17:00,
2013-05-07 13:18:00,87.6,75.2,29.88,SW,225,7.0,12.0,73,0.00,,,0.00,meteohub,2013-05-07 17:18:00,
2013-05-07 13:20:00,87.8,75.2,29.88,SE,135,8.0,12.0,72,0.00,,,0.00,meteohub,2013-05-07 17:20:00,
2013-05-07 13:22:00,88.0,75.2,29.88,SW,225,8.0,12.0,72,0.00,,,0.00,meteohub,2013-05-07 17:22:00,
2013-05-07 13:23:00,87.8,75.2,29.88,South,180,9.0,12.0,71,0.00,,,0.00,meteohub,2013-05-07 17:23:00,
2013-05-07 13:24:00,87.4,75.2,29.88,SSW,203,9.0,12.0,73,0.00,,,0.00,meteohub,2013-05-07 17:24:00,
2013-05-07 13:25:00,87.4,75.2,29.88,SSW,203,9.0,12.0,73,0.00,,,0.00,meteohub,2013-05-07 17:25:00,
2013-05-07 13:26:00,86.9,75.2,29.88,South,180,11.0,11.0,73,0.00,,,0.00,meteohub,2013-05-07 17:26:00,
2013-05-07 13:27:00,86.7,75.2,29.88,South,180,8.0,11.0,73,0.00,,,0.00,meteohub,2013-05-07 17:27:00,
2013-05-07 13:30:00,86.5,75.2,29.88,South,180,11.0,11.0,75,0.00,,,0.00,meteohub,2013-05-07 17:30:00,
2013-05-07 13:31:00,86.4,75.2,29.88,South,180,11.0,11.0,75,0.00,,,0.00,meteohub,2013-05-07 17:31:00,
2013-05-07 13:33:00,86.0,75.2,29.88,South,180,11.0,11.0,76,0.00,,,0.00,meteohub,2013-05-07 17:33:00,
2013-05-07 13:34:00,85.8,75.2,29.88,South,180,7.0,11.0,77,0.00,,,0.00,meteohub,2013-05-07 17:34:00,
2013-05-07 13:38:00,86.7,75.2,29.87,SW,225,8.0,11.0,76,0.00,,,0.00,meteohub,2013-05-07 17:38:00,
2013-05-07 13:39:00,86.7,75.2,29.87,SW,225,8.0,11.0,76,0.00,,,0.00,meteohub,2013-05-07 17:39:00,
2013-05-07 13:40:00,86.9,75.2,29.87,South,180,10.0,11.0,76,0.00,,,0.00,meteohub,2013-05-07 17:40:00,
2013-05-07 13:42:00,87.3,75.2,29.87,South,180,11.0,11.0,74,0.00,,,0.00,meteohub,2013-05-07 17:42:00,
2013-05-07 13:44:00,87.1,75.2,29.87,South,180,11.0,11.0,74,0.00,,,0.00,meteohub,2013-05-07 17:44:00,
2013-05-07 13:45:00,86.9,75.6,29.87,SW,225,8.0,11.0,74,0.00,,,0.00,meteohub,2013-05-07 17:45:00,
2013-05-07 13:47:00,86.9,75.2,29.87,South,180,11.0,11.0,74,0.00,,,0.00,meteohub,2013-05-07 17:47:00,
2013-05-07 13:50:00,86.5,75.6,29.87,SW,225,10.0,12.0,75,0.00,,,0.00,meteohub,2013-05-07 17:50:00,
2013-05-07 13:51:00,86.5,75.6,29.87,South,180,9.0,12.0,75,0.00,,,0.00,meteohub,2013-05-07 17:51:00,
2013-05-07 13:52:00,86.4,75.6,29.87,SSW,203,10.0,12.0,76,0.00,,,0.00,meteohub,2013-05-07 17:52:00,
2013-05-07 13:55:00,85.8,75.6,29.87,SW,225,10.0,12.0,78,0.00,,,0.00,meteohub,2013-05-07 17:55:00,
2013-05-07 13:56:00,85.6,75.6,29.87,WSW,248,8.0,12.0,78,0.00,,,0.00,meteohub,2013-05-07 17:56:00,
2013-05-07 13:57:00,85.6,75.6,29.87,WSW,248,8.0,12.0,78,0.00,,,0.00,meteohub,2013-05-07 17:57:00,
2013-05-07 14:01:00,84.9,75.6,29.87,SW,225,8.0,12.0,80,0.00,,,0.00,meteohub,2013-05-07 18:01:00,
2013-05-07 14:02:00,84.7,75.6,29.87,SE,135,15.0,15.0,80,0.00,,,0.00,meteohub,2013-05-07 18:02:00,
2013-05-07 14:04:00,84.4,75.6,29.87,SW,225,11.0,12.0,80,0.00,,,0.00,meteohub,2013-05-07 18:04:00,
2013-05-07 14:05:00,84.2,75.6,29.87,South,180,8.0,12.0,80,0.00,,,0.00,meteohub,2013-05-07 18:05:00,
2013-05-07 14:06:00,84.0,75.6,29.86,SW,225,10.0,15.0,82,0.00,,,0.00,meteohub,2013-05-07 18:06:00,
2013-05-07 14:07:00,84.0,75.6,29.86,South,180,13.0,15.0,82,0.00,,,0.00,meteohub,2013-05-07 18:07:00,
2013-05-07 14:08:00,84.0,75.6,29.86,South,180,15.0,15.0,82,0.00,,,0.00,meteohub,2013-05-07 18:08:00,
2013-05-07 14:10:00,83.8,75.6,29.86,SW,225,16.0,16.0,82,0.00,,,0.00,meteohub,2013-05-07 18:10:00,
2013-05-07 14:13:00,83.5,75.4,29.86,SW,225,12.0,15.0,82,0.00,,,0.00,meteohub,2013-05-07 18:13:00,
2013-05-07 14:14:00,83.5,75.4,29.86,SW,225,8.0,15.0,82,0.00,,,0.00,meteohub,2013-05-07 18:14:00,
2013-05-07 14:15:00,83.3,75.4,29.86,WSW,248,11.0,15.0,82,0.00,,,0.00,meteohub,2013-05-07 18:15:00,
2013-05-07 14:17:00,83.1,75.4,29.86,SSW,203,8.0,17.0,83,0.00,,,0.00,meteohub,2013-05-07 18:17:00,
2013-05-07 14:21:00,83.1,75.4,29.86,SW,225,12.0,17.0,83,0.00,,,0.00,meteohub,2013-05-07 18:21:00,
2013-05-07 14:22:00,83.1,75.4,29.86,South,180,8.0,17.0,83,0.00,,,0.00,meteohub,2013-05-07 18:22:00,
2013-05-07 14:23:00,83.1,75.4,29.86,SW,225,10.0,17.0,84,0.00,,,0.00,meteohub,2013-05-07 18:23:00,
2013-05-07 14:26:00,82.8,75.4,29.87,NW,315,15.0,17.0,83,0.00,,,0.00,meteohub,2013-05-07 18:26:00,
2013-05-07 14:27:00,82.6,75.4,29.87,West,270,11.0,17.0,82,0.00,,,0.00,meteohub,2013-05-07 18:27:00,
2013-05-07 14:28:00,82.6,75.4,29.87,West,270,11.0,17.0,82,0.00,,,0.00,meteohub,2013-05-07 18:28:00,
2013-05-07 14:29:00,82.0,74.8,29.87,West,270,10.0,17.0,81,0.00,,,0.00,meteohub,2013-05-07 18:29:00,
2013-05-07 14:32:00,81.0,74.5,29.88,West,270,8.0,15.0,82,0.00,,,0.00,meteohub,2013-05-07 18:32:00,
2013-05-07 14:33:00,80.1,74.3,29.88,NW,315,23.0,23.0,85,0.00,,,0.00,meteohub,2013-05-07 18:33:00,
2013-05-07 14:34:00,80.1,74.3,29.88,NW,315,23.0,23.0,85,0.00,,,0.00,meteohub,2013-05-07 18:34:00,
2013-05-07 14:35:00,78.6,74.3,29.87,North,0,15.0,23.0,88,0.12,,,0.12,meteohub,2013-05-07 18:35:00,
2013-05-07 14:37:00,77.0,74.8,29.87,NW,315,23.0,23.0,91,0.12,,,0.12,meteohub,2013-05-07 18:37:00,
2013-05-07 14:40:00,75.7,74.5,29.87,NW,315,16.0,23.0,94,0.12,,,0.12,meteohub,2013-05-07 18:40:00,
2013-05-07 14:41:00,75.4,74.5,29.88,NW,315,24.0,24.0,95,0.35,,,0.35,meteohub,2013-05-07 18:41:00,
2013-05-07 14:43:00,74.5,74.3,29.88,NW,315,21.0,24.0,96,0.35,,,0.35,meteohub,2013-05-07 18:43:00,
2013-05-07 14:44:00,73.9,73.8,29.89,WNW,293,23.0,24.0,97,0.35,,,0.35,meteohub,2013-05-07 18:44:00,
2013-05-07 14:46:00,73.9,73.8,29.89,NNW,338,23.0,24.0,97,0.50,,,0.50,meteohub,2013-05-07 18:46:00,
2013-05-07 14:47:00,73.9,73.6,29.89,NW,315,17.0,24.0,98,0.50,,,0.50,meteohub,2013-05-07 18:47:00,
2013-05-07 14:49:00,74.1,73.6,29.89,NW,315,19.0,24.0,98,0.50,,,0.50,meteohub,2013-05-07 18:49:00,
2013-05-07 14:51:00,73.9,73.8,29.88,WNW,293,17.0,24.0,99,0.74,,,0.74,meteohub,2013-05-07 18:51:00,
2013-05-07 14:52:00,73.9,73.8,29.88,WNW,293,17.0,24.0,99,0.74,,,0.74,meteohub,2013-05-07 18:52:00,
2013-05-07 14:53:00,73.6,73.8,29.88,WNW,293,17.0,24.0,99,0.74,,,0.74,meteohub,2013-05-07 18:53:00,
2013-05-07 14:54:00,73.6,73.8,29.89,NW,315,24.0,24.0,99,0.74,,,0.74,meteohub,2013-05-07 18:54:00,
2013-05-07 14:56:00,73.4,73.6,29.88,NW,315,22.0,24.0,99,1.04,,,1.04,meteohub,2013-05-07 18:56:00,
2013-05-07 14:57:00,73.4,73.6,29.89,NW,315,17.0,24.0,99,1.04,,,1.04,meteohub,2013-05-07 18:57:00,
2013-05-07 14:58:00,73.4,73.4,29.89,NW,315,13.0,24.0,99,1.04,,,1.04,meteohub,2013-05-07 18:58:00,
2013-05-07 15:01:00,73.2,73.0,29.88,North,0,14.0,24.0,97,1.16,,,1.16,meteohub,2013-05-07 19:01:00,
2013-05-07 15:02:00,73.2,73.0,29.88,WNW,293,15.0,24.0,97,1.16,,,1.16,meteohub,2013-05-07 19:02:00,
2013-05-07 15:03:00,73.2,72.9,29.88,North,0,16.0,24.0,97,1.16,,,1.16,meteohub,2013-05-07 19:03:00,
2013-05-07 15:07:00,73.0,72.7,29.88,WNW,293,13.0,24.0,97,1.32,,,1.32,meteohub,2013-05-07 19:07:00,
2013-05-07 15:08:00,73.0,72.5,29.89,NW,315,11.0,24.0,97,1.32,,,1.32,meteohub,2013-05-07 19:08:00,
2013-05-07 15:11:00,73.0,72.9,29.89,NW,315,11.0,22.0,97,1.42,,,1.42,meteohub,2013-05-07 19:11:00,
2013-05-07 15:14:00,73.0,72.7,29.89,NW,315,7.0,22.0,97,1.42,,,1.42,meteohub,2013-05-07 19:14:00,
2013-05-07 15:15:00,73.0,72.7,29.89,NW,315,6.0,22.0,97,1.42,,,1.42,meteohub,2013-05-07 19:15:00,
2013-05-07 15:16:00,73.2,72.7,29.89,West,270,8.0,19.0,97,1.45,,,1.45,meteohub,2013-05-07 19:16:00,
2013-05-07 15:17:00,73.0,72.7,29.89,NW,315,7.0,19.0,97,1.45,,,1.45,meteohub,2013-05-07 19:17:00,
2013-05-07 15:19:00,73.0,72.7,29.89,NW,315,6.0,19.0,97,1.45,,,1.45,meteohub,2013-05-07 19:19:00,
2013-05-07 15:20:00,73.0,72.7,29.89,NW,315,9.0,14.0,97,1.52,,,1.52,meteohub,2013-05-07 19:20:00,
2013-05-07 15:21:00,73.0,72.7,29.88,North,0,8.0,14.0,97,1.52,,,1.52,meteohub,2013-05-07 19:21:00,
2013-05-07 15:25:00,72.9,72.7,29.89,NE,45,6.0,14.0,97,1.52,,,1.52,meteohub,2013-05-07 19:25:00,
2013-05-07 15:26:00,72.9,72.7,29.89,North,0,4.0,11.0,97,1.55,,,1.55,meteohub,2013-05-07 19:26:00,
2013-05-07 15:27:00,72.9,72.7,29.89,North,0,4.0,11.0,97,1.55,,,1.55,meteohub,2013-05-07 19:27:00,
2013-05-07 15:29:00,72.9,72.7,29.89,NNE,23,5.0,11.0,97,1.55,,,1.55,meteohub,2013-05-07 19:29:00,
2013-05-07 15:30:00,72.9,72.7,29.89,NE,45,4.0,11.0,97,1.55,,,1.55,meteohub,2013-05-07 19:30:00,
2013-05-07 15:31:00,72.9,72.7,29.89,North,0,4.0,9.0,97,1.58,,,1.58,meteohub,2013-05-07 19:31:00,
2013-05-07 15:32:00,72.9,72.7,29.89,North,0,4.0,9.0,97,1.58,,,1.58,meteohub,2013-05-07 19:32:00,
2013-05-07 15:36:00,72.9,72.7,29.89,SSE,158,2.0,9.0,97,1.39,,,1.61,meteohub,2013-05-07 19:36:00,
2013-05-07 15:37:00,72.9,72.7,29.89,NW,315,2.0,9.0,97,1.39,,,1.61,meteohub,2013-05-07 19:37:00,
2013-05-07 15:39:00,72.9,72.7,29.89,South,180,0.0,9.0,97,1.39,,,1.61,meteohub,2013-05-07 19:39:00,
2013-05-07 15:40:00,72.9,72.7,29.89,South,180,0.0,9.0,97,1.39,,,1.61,meteohub,2013-05-07 19:40:00,
2013-05-07 15:42:00,72.9,72.7,29.90,South,180,0.0,5.0,97,1.23,,,1.61,meteohub,2013-05-07 19:42:00,
2013-05-07 15:44:00,72.9,72.7,29.89,South,180,0.0,5.0,97,1.23,,,1.61,meteohub,2013-05-07 19:44:00,
2013-05-07 15:45:00,72.9,72.7,29.89,South,180,0.0,5.0,97,1.23,,,1.61,meteohub,2013-05-07 19:45:00,
2013-05-07 15:46:00,72.9,72.7,29.89,South,180,0.0,4.0,97,0.99,,,1.62,meteohub,2013-05-07 19:46:00,
2013-05-07 15:47:00,73.2,72.7,29.89,NW,315,6.0,6.0,97,0.99,,,1.62,meteohub,2013-05-07 19:47:00,
2013-05-07 15:48:00,73.2,72.9,29.89,NW,315,8.0,8.0,97,0.99,,,1.62,meteohub,2013-05-07 19:48:00,
2013-05-07 15:49:00,73.2,72.9,29.89,NW,315,5.0,5.0,97,0.99,,,1.62,meteohub,2013-05-07 19:49:00,
2013-05-07 15:51:00,73.0,72.9,29.89,NW,315,9.0,9.0,97,0.80,,,1.63,meteohub,2013-05-07 19:51:00,
2013-05-07 15:52:00,73.0,72.9,29.89,NW,315,8.0,8.0,97,0.80,,,1.63,meteohub,2013-05-07 19:52:00,
2013-05-07 15:54:00,73.2,72.9,29.89,NW,315,8.0,8.0,97,0.80,,,1.63,meteohub,2013-05-07 19:54:00,
2013-05-07 15:55:00,73.2,72.9,29.89,NW,315,10.0,10.0,97,0.80,,,1.63,meteohub,2013-05-07 19:55:00,
2013-05-07 15:56:00,73.2,72.9,29.89,North,0,7.0,9.0,97,0.59,,,1.63,meteohub,2013-05-07 19:56:00,
2013-05-07 15:57:00,73.2,72.9,29.89,North,0,7.0,9.0,97,0.59,,,1.63,meteohub,2013-05-07 19:57:00,
2013-05-07 15:59:00,73.2,72.9,29.89,North,0,8.0,9.0,97,0.59,,,1.63,meteohub,2013-05-07 19:59:00,
2013-05-07 16:00:00,73.2,72.9,29.89,NW,315,7.0,10.0,97,0.44,,,1.64,meteohub,2013-05-07 20:00:00,
2013-05-07 16:02:00,73.2,72.9,29.89,NW,315,9.0,10.0,97,0.44,,,1.64,meteohub,2013-05-07 20:02:00,
2013-05-07 16:03:00,73.2,72.9,29.89,NW,315,11.0,11.0,97,0.44,,,1.64,meteohub,2013-05-07 20:03:00,
2013-05-07 16:06:00,73.2,72.7,29.88,NW,315,11.0,11.0,97,0.28,,,1.64,meteohub,2013-05-07 20:06:00,
2013-05-07 16:07:00,73.2,72.3,29.88,NW,315,10.0,11.0,97,0.28,,,1.64,meteohub,2013-05-07 20:07:00,
2013-05-07 16:08:00,73.2,72.3,29.88,NW,315,8.0,11.0,97,0.28,,,1.64,meteohub,2013-05-07 20:08:00,
2013-05-07 16:10:00,73.2,72.3,29.88,North,0,11.0,11.0,97,0.24,,,1.65,meteohub,2013-05-07 20:10:00,
2013-05-07 16:11:00,73.2,72.3,29.88,North,0,11.0,11.0,97,0.24,,,1.65,meteohub,2013-05-07 20:11:00,
2013-05-07 16:12:00,73.4,72.3,29.88,NW,315,9.0,11.0,99,0.24,,,1.65,meteohub,2013-05-07 20:12:00,
2013-05-07 16:13:00,73.4,72.3,29.88,NW,315,9.0,11.0,99,0.24,,,1.65,meteohub,2013-05-07 20:13:00,
2013-05-07 16:15:00,73.4,72.3,29.88,NW,315,10.0,11.0,99,0.18,,,1.65,meteohub,2013-05-07 20:15:00,
2013-05-07 16:17:00,73.4,72.3,29.88,NW,315,9.0,11.0,99,0.18,,,1.65,meteohub,2013-05-07 20:17:00,
2013-05-07 16:19:00,73.4,72.1,29.89,NW,315,11.0,11.0,99,0.18,,,1.65,meteohub,2013-05-07 20:19:00,
2013-05-07 16:21:00,73.4,72.1,29.89,NW,315,11.0,14.0,99,0.13,,,1.65,meteohub,2013-05-07 20:21:00,
2013-05-07 16:22:00,73.4,72.3,29.89,NW,315,11.0,14.0,99,0.13,,,1.65,meteohub,2013-05-07 20:22:00,
2013-05-07 16:25:00,73.4,72.1,29.89,North,0,14.0,14.0,99,0.09,,,1.67,meteohub,2013-05-07 20:25:00,
2013-05-07 16:26:00,73.4,72.1,29.89,North,0,14.0,14.0,99,0.09,,,1.67,meteohub,2013-05-07 20:26:00,
2013-05-07 16:27:00,73.4,72.1,29.89,NW,315,11.0,14.0,99,0.09,,,1.67,meteohub,2013-05-07 20:27:00,
2013-05-07 16:30:00,73.4,72.1,29.89,North,0,9.0,14.0,99,0.07,,,1.67,meteohub,2013-05-07 20:30:00,
2013-05-07 16:31:00,73.4,72.1,29.89,NW,315,9.0,14.0,99,0.07,,,1.67,meteohub,2013-05-07 20:31:00,
2013-05-07 16:33:00,73.4,72.1,29.89,NW,315,10.0,14.0,99,0.07,,,1.67,meteohub,2013-05-07 20:33:00,
2013-05-07 16:36:00,73.4,72.1,29.89,North,0,8.0,14.0,99,0.06,,,1.67,meteohub,2013-05-07 20:36:00,
2013-05-07 16:39:00,73.4,72.1,29.89,NNW,338,8.0,14.0,99,0.06,,,1.67,meteohub,2013-05-07 20:39:00,
2013-05-07 16:40:00,73.4,72.1,29.89,North,0,11.0,14.0,99,0.06,,,1.67,meteohub,2013-05-07 20:40:00,
2013-05-07 16:43:00,73.4,72.1,29.89,NW,315,10.0,14.0,99,0.06,,,1.68,meteohub,2013-05-07 20:43:00,
2013-05-07 16:44:00,73.4,72.1,29.89,NW,315,9.0,14.0,99,0.06,,,1.68,meteohub,2013-05-07 20:44:00,
2013-05-07 16:45:00,73.4,72.1,29.89,NW,315,11.0,14.0,99,0.06,,,1.68,meteohub,2013-05-07 20:45:00,
2013-05-07 16:47:00,73.4,72.1,29.89,North,0,12.0,12.0,99,0.06,,,1.68,meteohub,2013-05-07 20:47:00,
2013-05-07 16:48:00,73.4,72.1,29.89,NW,315,10.0,12.0,99,0.06,,,1.68,meteohub,2013-05-07 20:48:00,
2013-05-07 16:49:00,73.4,72.1,29.89,NNW,338,12.0,12.0,99,0.06,,,1.68,meteohub,2013-05-07 20:49:00,
2013-05-07 16:50:00,73.4,72.1,29.89,NW,315,13.0,13.0,99,0.05,,,1.68,meteohub,2013-05-07 20:50:00,
2013-05-07 16:51:00,73.4,72.1,29.89,North,0,11.0,12.0,99,0.05,,,1.68,meteohub,2013-05-07 20:51:00,
2013-05-07 16:54:00,73.6,72.1,29.90,WNW,293,11.0,12.0,99,0.05,,,1.68,meteohub,2013-05-07 20:54:00,
2013-05-07 16:56:00,73.6,72.1,29.89,NW,315,12.0,14.0,99,0.05,,,1.68,meteohub,2013-05-07 20:56:00,
2013-05-07 16:57:00,73.6,72.0,29.89,NNW,338,11.0,14.0,99,0.05,,,1.68,meteohub,2013-05-07 20:57:00,
2013-05-07 16:58:00,73.6,72.1,29.90,NW,315,11.0,14.0,99,0.05,,,1.68,meteohub,2013-05-07 20:58:00,
2013-05-07 17:02:00,73.8,72.0,29.89,NW,315,11.0,14.0,99,0.05,,,1.69,meteohub,2013-05-07 21:02:00,
2013-05-07 17:03:00,73.8,72.0,29.89,NW,315,11.0,14.0,99,0.05,,,1.69,meteohub,2013-05-07 21:03:00,
2013-05-07 17:04:00,73.8,72.0,29.89,NW,315,13.0,14.0,99,0.05,,,1.69,meteohub,2013-05-07 21:04:00,
2013-05-07 17:07:00,73.8,72.0,29.88,North,0,9.0,13.0,99,0.04,,,1.69,meteohub,2013-05-07 21:07:00,
2013-05-07 17:08:00,73.8,72.0,29.89,North,0,8.0,13.0,99,0.04,,,1.69,meteohub,2013-05-07 21:08:00,
2013-05-07 17:09:00,73.8,72.1,29.88,NW,315,11.0,13.0,99,0.04,,,1.69,meteohub,2013-05-07 21:09:00,
2013-05-07 17:10:00,73.8,72.0,29.88,NW,315,9.0,13.0,99,0.04,,,1.69,meteohub,2013-05-07 21:10:00,
2013-05-07 17:12:00,73.8,72.0,29.88,NW,315,10.0,13.0,99,0.04,,,1.69,meteohub,2013-05-07 21:12:00,
2013-05-07 17:14:00,73.8,72.0,29.89,NW,315,10.0,13.0,99,0.04,,,1.69,meteohub,2013-05-07 21:14:00,
2013-05-07 17:15:00,73.8,72.0,29.88,North,0,8.0,13.0,99,0.05,,,1.70,meteohub,2013-05-07 21:15:00,
2013-05-07 17:16:00,73.8,72.0,29.88,North,0,11.0,13.0,99,0.05,,,1.70,meteohub,2013-05-07 21:16:00,
2013-05-07 17:19:00,74.1,72.0,29.88,NW,315,7.0,13.0,99,0.05,,,1.70,meteohub,2013-05-07 21:19:00,
2013-05-07 17:20:00,74.1,72.0,29.88,NW,315,10.0,13.0,99,0.04,,,1.70,meteohub,2013-05-07 21:20:00,
2013-05-07 17:21:00,74.1,72.0,29.88,North,0,8.0,13.0,99,0.04,,,1.70,meteohub,2013-05-07 21:21:00,
2013-05-07 17:22:00,74.1,72.0,29.88,North,0,8.0,13.0,99,0.04,,,1.70,meteohub,2013-05-07 21:22:00,
2013-05-07 17:25:00,74.1,72.0,29.88,NW,315,11.0,11.0,98,0.04,,,1.70,meteohub,2013-05-07 21:25:00,
2013-05-07 17:26:00,74.1,72.0,29.88,NW,315,9.0,11.0,98,0.04,,,1.70,meteohub,2013-05-07 21:26:00,
2013-05-07 17:27:00,73.9,72.0,29.88,NW,315,8.0,11.0,98,0.04,,,1.70,meteohub,2013-05-07 21:27:00,
2013-05-07 17:31:00,74.1,72.1,29.88,NW,315,8.0,11.0,98,0.04,,,1.70,meteohub,2013-05-07 21:31:00,
2013-05-07 17:32:00,74.1,72.1,29.88,North,0,10.0,11.0,98,0.04,,,1.70,meteohub,2013-05-07 21:32:00,
2013-05-07 17:33:00,74.1,72.1,29.88,NE,45,11.0,11.0,98,0.04,,,1.70,meteohub,2013-05-07 21:33:00,
2013-05-07 17:34:00,74.1,72.1,29.88,NW,315,11.0,11.0,98,0.04,,,1.70,meteohub,2013-05-07 21:34:00,
2013-05-07 17:35:00,74.1,72.1,29.89,NW,315,11.0,11.0,98,0.04,,,1.70,meteohub,2013-05-07 21:35:00,
2013-05-07 17:36:00,74.1,72.1,29.88,North,0,11.0,13.0,98,0.04,,,1.70,meteohub,2013-05-07 21:36:00,
2013-05-07 17:38:00,74.1,72.1,29.88,North,0,9.0,13.0,98,0.04,,,1.70,meteohub,2013-05-07 21:38:00,
2013-05-07 17:40:00,74.1,72.1,29.88,NW,315,10.0,13.0,98,0.02,,,1.70,meteohub,2013-05-07 21:40:00,
2013-05-07 17:41:00,73.8,72.1,29.89,North,0,8.0,13.0,98,0.02,,,1.70,meteohub,2013-05-07 21:41:00,
2013-05-07 17:42:00,73.8,72.1,29.89,North,0,7.0,13.0,98,0.02,,,1.70,meteohub,2013-05-07 21:42:00,
2013-05-07 17:44:00,73.8,72.0,29.89,NW,315,8.0,13.0,98,0.02,,,1.70,meteohub,2013-05-07 21:44:00,
2013-05-07 17:45:00,73.8,72.0,29.89,NW,315,8.0,13.0,98,0.02,,,1.70,meteohub,2013-05-07 21:45:00,
2013-05-07 17:46:00,73.8,72.0,29.89,NW,315,8.0,13.0,98,0.02,,,1.70,meteohub,2013-05-07 21:46:00,
2013-05-07 17:47:00,73.8,72.0,29.89,NW,315,8.0,13.0,98,0.02,,,1.70,meteohub,2013-05-07 21:47:00,
2013-05-07 17:52:00,73.9,72.0,29.89,NW,315,7.0,11.0,97,0.04,,,1.71,meteohub,2013-05-07 21:52:00,
2013-05-07 17:53:00,73.9,71.8,29.89,North,0,6.0,11.0,97,0.04,,,1.71,meteohub,2013-05-07 21:53:00,
2013-05-07 17:54:00,73.9,71.8,29.89,NW,315,6.0,11.0,97,0.04,,,1.71,meteohub,2013-05-07 21:54:00,
2013-05-07 17:58:00,73.9,71.8,29.89,North,0,8.0,10.0,97,0.05,,,1.72,meteohub,2013-05-07 21:58:00,
2013-05-07 17:59:00,73.9,71.8,29.88,NW,315,7.0,10.0,97,0.05,,,1.72,meteohub,2013-05-07 21:59:00,
2013-05-07 18:00:00,73.9,71.8,29.88,NW,315,7.0,10.0,97,0.05,,,1.72,meteohub,2013-05-07 22:00:00,
2013-05-07 18:01:00,73.9,71.8,29.88,NW,315,7.0,9.0,97,0.04,,,1.72,meteohub,2013-05-07 22:01:00,
2013-05-07 18:05:00,73.8,71.8,29.88,North,0,6.0,8.0,98,0.05,,,1.74,meteohub,2013-05-07 22:05:00,
2013-05-07 18:06:00,73.8,71.8,29.88,North,0,6.0,8.0,98,0.05,,,1.74,meteohub,2013-05-07 22:06:00,
2013-05-07 18:07:00,73.8,72.3,29.89,North,0,8.0,8.0,98,0.05,,,1.74,meteohub,2013-05-07 22:07:00,
2013-05-07 18:10:00,73.8,72.1,29.89,SE,135,6.0,8.0,98,0.05,,,1.74,meteohub,2013-05-07 22:10:00,
2013-05-07 18:11:00,73.8,72.3,29.89,NW,315,6.0,8.0,98,0.05,,,1.75,meteohub,2013-05-07 22:11:00,
2013-05-07 18:12:00,73.8,72.3,29.89,North,0,8.0,8.0,98,0.05,,,1.75,meteohub,2013-05-07 22:12:00,
2013-05-07 18:13:00,73.8,72.1,29.89,North,0,8.0,8.0,98,0.05,,,1.75,meteohub,2013-05-07 22:13:00,
2013-05-07 18:15:00,73.8,72.1,29.89,NW,315,7.0,8.0,98,0.05,,,1.75,meteohub,2013-05-07 22:15:00,
2013-05-07 18:17:00,73.8,72.1,29.89,NW,315,8.0,8.0,98,0.05,,,1.75,meteohub,2013-05-07 22:17:00,
2013-05-07 18:19:00,73.8,72.1,29.89,NW,315,7.0,8.0,98,0.05,,,1.75,meteohub,2013-05-07 22:19:00,
2013-05-07 18:20:00,73.8,72.1,29.90,NW,315,6.0,8.0,98,0.05,,,1.75,meteohub,2013-05-07 22:20:00,
2013-05-07 18:21:00,73.8,72.1,29.89,NW,315,5.0,8.0,98,0.06,,,1.76,meteohub,2013-05-07 22:21:00,
2013-05-07 18:23:00,73.8,72.1,29.90,NW,315,5.0,8.0,98,0.06,,,1.76,meteohub,2013-05-07 22:23:00,
2013-05-07 18:24:00,73.8,72.1,29.90,NW,315,5.0,8.0,98,0.06,,,1.76,meteohub,2013-05-07 22:24:00,
2013-05-07 18:25:00,73.8,72.1,29.90,NW,315,5.0,8.0,98,0.06,,,1.76,meteohub,2013-05-07 22:25:00,
2013-05-07 18:26:00,73.8,72.1,29.89,NW,315,6.0,8.0,98,0.06,,,1.76,meteohub,2013-05-07 22:26:00,
2013-05-07 18:27:00,73.8,72.1,29.90,NW,315,6.0,8.0,98,0.06,,,1.76,meteohub,2013-05-07 22:27:00,
2013-05-07 18:31:00,73.8,72.0,29.89,NW,315,5.0,8.0,98,0.07,,,1.77,meteohub,2013-05-07 22:31:00,
2013-05-07 18:32:00,73.8,72.0,29.90,NW,315,4.0,8.0,98,0.07,,,1.77,meteohub,2013-05-07 22:32:00,
2013-05-07 18:33:00,73.8,72.0,29.90,NW,315,5.0,8.0,98,0.07,,,1.77,meteohub,2013-05-07 22:33:00,
2013-05-07 18:37:00,73.8,71.8,29.90,North,0,4.0,6.0,98,0.07,,,1.77,meteohub,2013-05-07 22:37:00,
2013-05-07 18:38:00,73.8,71.8,29.90,North,0,4.0,6.0,98,0.07,,,1.77,meteohub,2013-05-07 22:38:00,
2013-05-07 18:40:00,73.8,71.8,29.91,NW,315,4.0,6.0,98,0.07,,,1.77,meteohub,2013-05-07 22:40:00,
2013-05-07 18:41:00,73.8,71.8,29.91,NE,45,6.0,6.0,98,0.07,,,1.77,meteohub,2013-05-07 22:41:00,
2013-05-07 18:44:00,73.8,71.8,29.91,North,0,5.0,6.0,98,0.07,,,1.77,meteohub,2013-05-07 22:44:00,
2013-05-07 18:45:00,73.8,71.8,29.91,North,0,5.0,6.0,98,0.07,,,1.78,meteohub,2013-05-07 22:45:00,
2013-05-07 18:46:00,73.8,71.8,29.91,NNW,338,4.0,6.0,98,0.07,,,1.78,meteohub,2013-05-07 22:46:00,
2013-05-07 18:47:00,73.8,71.8,29.91,North,0,4.0,6.0,98,0.07,,,1.78,meteohub,2013-05-07 22:47:00,
2013-05-07 18:49:00,73.8,71.8,29.90,NW,315,4.0,6.0,98,0.07,,,1.78,meteohub,2013-05-07 22:49:00,
2013-05-07 18:50:00,73.8,71.8,29.91,NW,315,4.0,6.0,98,0.07,,,1.78,meteohub,2013-05-07 22:50:00,
2013-05-07 18:51:00,73.8,71.8,29.90,NNW,338,4.0,6.0,98,0.07,,,1.78,meteohub,2013-05-07 22:51:00,
2013-05-07 18:52:00,73.8,71.8,29.90,North,0,4.0,6.0,98,0.07,,,1.78,meteohub,2013-05-07 22:52:00,
2013-05-07 18:55:00,73.6,71.8,29.91,North,0,4.0,6.0,98,0.07,,,1.78,meteohub,2013-05-07 22:55:00,
2013-05-07 18:56:00,73.6,71.8,29.91,NE,45,5.0,6.0,98,0.06,,,1.78,meteohub,2013-05-07 22:56:00,
2013-05-07 18:57:00,73.6,71.8,29.91,North,0,4.0,6.0,98,0.06,,,1.78,meteohub,2013-05-07 22:57:00,
2013-05-07 18:58:00,73.6,71.8,29.91,NE,45,4.0,6.0,98,0.06,,,1.78,meteohub,2013-05-07 22:58:00,
2013-05-07 19:02:00,73.4,71.8,29.91,North,0,4.0,6.0,98,0.05,,,1.78,meteohub,2013-05-07 23:02:00,
2013-05-07 19:04:00,73.4,71.8,29.91,NE,45,4.0,6.0,98,0.05,,,1.78,meteohub,2013-05-07 23:04:00,
2013-05-07 19:05:00,73.4,71.8,29.91,North,0,5.0,6.0,98,0.05,,,1.78,meteohub,2013-05-07 23:05:00,
2013-05-07 19:06:00,73.4,71.8,29.91,North,0,5.0,6.0,98,0.05,,,1.78,meteohub,2013-05-07 23:06:00,
2013-05-07 19:07:00,73.4,71.8,29.91,North,0,5.0,6.0,98,0.05,,,1.78,meteohub,2013-05-07 23:07:00,
2013-05-07 19:09:00,73.4,71.8,29.91,North,0,5.0,6.0,98,0.05,,,1.78,meteohub,2013-05-07 23:09:00,
2013-05-07 19:10:00,73.4,71.8,29.91,NNE,23,4.0,6.0,98,0.05,,,1.78,meteohub,2013-05-07 23:10:00,
2013-05-07 19:11:00,73.4,71.8,29.91,NNE,23,4.0,6.0,98,0.04,,,1.78,meteohub,2013-05-07 23:11:00,
2013-05-07 19:13:00,73.4,71.2,29.92,North,0,3.0,6.0,98,0.04,,,1.78,meteohub,2013-05-07 23:13:00,
2013-05-07 19:15:00,73.4,71.2,29.91,NE,45,4.0,6.0,98,0.04,,,1.78,meteohub,2013-05-07 23:15:00,
2013-05-07 19:17:00,73.4,71.2,29.92,North,0,5.0,6.0,98,0.02,,,1.78,meteohub,2013-05-07 23:17:00,
2013-05-07 19:18:00,73.4,71.2,29.92,North,0,5.0,6.0,98,0.02,,,1.78,meteohub,2013-05-07 23:18:00,
2013-05-07 19:20:00,73.4,71.2,29.92,NE,45,6.0,6.0,98,0.02,,,1.78,meteohub,2013-05-07 23:20:00,
2013-05-07 19:21:00,73.4,71.2,29.92,North,0,8.0,8.0,98,0.04,,,1.80,meteohub,2013-05-07 23:21:00,
2013-05-07 19:22:00,73.2,71.2,29.92,NNE,23,7.0,7.0,97,0.04,,,1.80,meteohub,2013-05-07 23:22:00,
2013-05-07 19:24:00,73.2,71.2,29.92,NNE,23,7.0,7.0,97,0.04,,,1.80,meteohub,2013-05-07 23:24:00,
2013-05-07 19:26:00,73.2,71.2,29.92,NE,45,8.0,8.0,97,0.04,,,1.80,meteohub,2013-05-07 23:26:00,
2013-05-07 19:27:00,73.2,71.2,29.92,North,0,6.0,8.0,97,0.04,,,1.80,meteohub,2013-05-07 23:27:00,
2013-05-07 19:28:00,73.2,71.2,29.92,North,0,6.0,8.0,97,0.04,,,1.80,meteohub,2013-05-07 23:28:00,
2013-05-07 19:29:00,73.2,71.2,29.92,North,0,8.0,8.0,97,0.04,,,1.80,meteohub,2013-05-07 23:29:00,
2013-05-07 19:30:00,73.2,71.2,29.92,NE,45,7.0,8.0,97,0.04,,,1.80,meteohub,2013-05-07 23:30:00,
2013-05-07 19:32:00,73.2,71.2,29.92,North,0,8.0,8.0,97,0.02,,,1.80,meteohub,2013-05-07 23:32:00,
2013-05-07 19:34:00,73.2,71.2,29.92,North,0,9.0,9.0,97,0.02,,,1.80,meteohub,2013-05-07 23:34:00,
2013-05-07 19:35:00,73.2,71.2,29.92,North,0,9.0,9.0,97,0.02,,,1.80,meteohub,2013-05-07 23:35:00,
2013-05-07 19:37:00,73.4,71.2,29.92,North,0,8.0,8.0,99,0.02,,,1.80,meteohub,2013-05-07 23:37:00,
2013-05-07 19:40:00,73.4,71.2,29.92,NW,315,7.0,10.0,98,0.01,,,1.80,meteohub,2013-05-07 23:40:00,
2013-05-07 19:41:00,73.4,71.2,29.92,NW,315,7.0,10.0,98,0.01,,,1.80,meteohub,2013-05-07 23:41:00,
2013-05-07 19:43:00,73.4,71.2,29.92,NW,315,10.0,10.0,98,0.01,,,1.80,meteohub,2013-05-07 23:43:00,
2013-05-07 19:46:00,73.6,71.4,29.92,North,0,8.0,10.0,98,0.01,,,1.80,meteohub,2013-05-07 23:46:00,
2013-05-07 19:47:00,73.6,71.4,29.92,North,0,8.0,10.0,98,0.01,,,1.80,meteohub,2013-05-07 23:47:00,
2013-05-07 19:49:00,73.6,71.4,29.93,NW,315,7.0,10.0,98,0.01,,,1.80,meteohub,2013-05-07 23:49:00,
2013-05-07 19:50:00,73.6,71.4,29.93,NW,315,8.0,10.0,98,0.01,,,1.80,meteohub,2013-05-07 23:50:00,
2013-05-07 19:52:00,73.6,71.4,29.92,West,270,7.0,10.0,98,0.02,,,1.81,meteohub,2013-05-07 23:52:00,
2013-05-07 19:54:00,73.6,71.4,29.92,NW,315,7.0,10.0,98,0.02,,,1.81,meteohub,2013-05-07 23:54:00,
2013-05-07 19:56:00,73.6,71.4,29.92,NW,315,8.0,10.0,98,0.02,,,1.81,meteohub,2013-05-07 23:56:00,
2013-05-07 19:57:00,73.6,71.4,29.93,NW,315,9.0,10.0,98,0.02,,,1.81,meteohub,2013-05-07 23:57:00,
2013-05-07 20:00:00,73.6,71.4,29.92,NW,315,9.0,9.0,98,0.02,,,1.81,meteohub,2013-05-08 00:00:00,
2013-05-07 20:02:00,73.6,71.4,29.92,NW,315,8.0,9.0,98,0.02,,,1.81,meteohub,2013-05-08 00:02:00,
2013-05-07 20:03:00,73.6,71.4,29.92,NW,315,7.0,9.0,98,0.02,,,1.81,meteohub,2013-05-08 00:03:00,
2013-05-07 20:05:00,73.6,71.4,29.92,North,0,8.0,9.0,98,0.02,,,1.81,meteohub,2013-05-08 00:05:00,
2013-05-07 20:07:00,73.8,71.4,29.92,NW,315,8.0,9.0,98,0.02,,,0.00,meteohub,2013-05-08 00:07:00,
2013-05-07 20:08:00,73.8,71.4,29.92,NW,315,7.0,9.0,98,0.02,,,0.00,meteohub,2013-05-08 00:08:00,
2013-05-07 20:09:00,73.8,71.4,29.92,North,0,6.0,9.0,98,0.02,,,0.00,meteohub,2013-05-08 00:09:00,
2013-05-07 20:10:00,73.8,71.4,29.92,North,0,6.0,9.0,98,0.02,,,0.00,meteohub,2013-05-08 00:10:00,
2013-05-07 20:12:00,73.8,71.8,29.92,NW,315,6.0,9.0,98,0.02,,,0.00,meteohub,2013-05-08 00:12:00,
2013-05-07 20:13:00,73.8,71.8,29.92,NW,315,7.0,9.0,98,0.02,,,0.00,meteohub,2013-05-08 00:13:00,
2013-05-07 20:14:00,73.8,71.8,29.92,NW,315,8.0,9.0,98,0.02,,,0.00,meteohub,2013-05-08 00:14:00,
2013-05-07 20:17:00,73.8,71.4,29.92,NW,315,7.0,9.0,98,0.01,,,0.00,meteohub,2013-05-08 00:17:00,
2013-05-07 20:19:00,73.9,71.8,29.92,NW,315,5.0,9.0,97,0.01,,,0.00,meteohub,2013-05-08 00:19:00,
2013-05-07 20:20:00,73.9,71.8,29.92,NW,315,5.0,9.0,97,0.01,,,0.00,meteohub,2013-05-08 00:20:00,
2013-05-07 20:22:00,73.9,71.8,29.93,NE,45,4.0,8.0,97,0.01,,,0.00,meteohub,2013-05-08 00:22:00,
2013-05-07 20:23:00,73.8,71.8,29.92,North,0,5.0,8.0,97,0.01,,,0.00,meteohub,2013-05-08 00:23:00,
2013-05-07 20:26:00,73.8,71.8,29.93,North,0,4.0,8.0,97,0.01,,,0.00,meteohub,2013-05-08 00:26:00,
2013-05-07 20:28:00,73.8,71.8,29.92,NW,315,4.0,8.0,97,0.01,,,0.00,meteohub,2013-05-08 00:28:00,
2013-05-07 20:29:00,73.8,71.8,29.92,NW,315,5.0,8.0,97,0.01,,,0.00,meteohub,2013-05-08 00:29:00,
2013-05-07 20:30:00,73.8,71.8,29.93,NW,315,5.0,8.0,97,0.01,,,0.00,meteohub,2013-05-08 00:30:00,
2013-05-07 20:31:00,73.8,71.8,29.93,NW,315,6.0,7.0,97,0.01,,,0.00,meteohub,2013-05-08 00:31:00,
2013-05-07 20:32:00,73.8,71.8,29.93,NW,315,4.0,7.0,97,0.01,,,0.00,meteohub,2013-05-08 00:32:00,
2013-05-07 20:35:00,73.8,71.8,29.93,NW,315,8.0,8.0,97,0.01,,,0.00,meteohub,2013-05-08 00:35:00,
2013-05-07 20:36:00,73.8,71.8,29.93,NNW,338,8.0,8.0,97,0.01,,,0.00,meteohub,2013-05-08 00:36:00,
2013-05-07 20:37:00,73.9,71.8,29.93,North,0,5.0,8.0,97,0.01,,,0.00,meteohub,2013-05-08 00:37:00,
2013-05-07 20:39:00,73.9,71.8,29.93,NW,315,7.0,8.0,97,0.01,,,0.00,meteohub,2013-05-08 00:39:00,
2013-05-07 20:42:00,73.9,71.8,29.92,NW,315,7.0,8.0,97,0.01,,,0.00,meteohub,2013-05-08 00:42:00,
2013-05-07 20:43:00,73.9,71.8,29.92,NW,315,5.0,8.0,97,0.01,,,0.00,meteohub,2013-05-08 00:43:00,
2013-05-07 20:44:00,73.9,71.8,29.92,NW,315,5.0,8.0,97,0.01,,,0.00,meteohub,2013-05-08 00:44:00,
2013-05-07 20:47:00,73.9,71.8,29.92,North,0,5.0,8.0,97,0.01,,,0.00,meteohub,2013-05-08 00:47:00,
2013-05-07 20:48:00,73.9,71.8,29.92,NW,315,6.0,8.0,97,0.01,,,0.00,meteohub,2013-05-08 00:48:00,
2013-05-07 20:50:00,73.9,71.8,29.92,NNW,338,7.0,8.0,97,0.01,,,0.00,meteohub,2013-05-08 00:50:00,
2013-05-07 20:51:00,73.9,71.8,29.92,NW,315,8.0,8.0,97,0.00,,,0.00,meteohub,2013-05-08 00:51:00,
2013-05-07 20:52:00,73.9,71.6,29.92,NW,315,8.0,8.0,97,0.00,,,0.00,meteohub,2013-05-08 00:52:00,
2013-05-07 20:55:00,73.9,71.6,29.92,NW,315,5.0,8.0,97,0.00,,,0.00,meteohub,2013-05-08 00:55:00,
2013-05-07 20:57:00,73.9,71.6,29.92,NW,315,4.0,8.0,97,0.00,,,0.00,meteohub,2013-05-08 00:57:00,
2013-05-07 20:59:00,73.9,71.6,29.91,NW,315,5.0,8.0,97,0.00,,,0.00,meteohub,2013-05-08 00:59:00,
2013-05-07 21:01:00,73.9,71.6,29.91,NW,315,6.0,8.0,97,0.00,,,0.00,meteohub,2013-05-08 01:01:00,
2013-05-07 21:02:00,73.9,71.6,29.91,NW,315,7.0,8.0,97,0.00,,,0.00,meteohub,2013-05-08 01:02:00,
2013-05-07 21:03:00,74.1,71.6,29.91,WNW,293,8.0,8.0,97,0.00,,,0.00,meteohub,2013-05-08 01:03:00,
2013-05-07 21:04:00,73.9,71.6,29.91,WNW,293,6.0,8.0,98,0.00,,,0.00,meteohub,2013-05-08 01:04:00,
2013-05-07 21:07:00,74.1,71.4,29.91,NW,315,8.0,8.0,98,0.00,,,0.00,meteohub,2013-05-08 01:07:00,
2013-05-07 21:09:00,74.1,71.4,29.91,West,270,8.0,8.0,98,0.00,,,0.00,meteohub,2013-05-08 01:09:00,
2013-05-07 21:12:00,74.1,71.8,29.91,NW,315,7.0,8.0,98,0.00,,,0.00,meteohub,2013-05-08 01:12:00,
2013-05-07 21:13:00,74.3,71.8,29.91,West,270,7.0,8.0,98,0.00,,,0.00,meteohub,2013-05-08 01:13:00,
2013-05-07 21:17:00,74.5,72.0,29.92,NW,315,5.0,8.0,98,0.00,,,0.00,meteohub,2013-05-08 01:17:00,
2013-05-07 21:18:00,74.5,72.0,29.92,West,270,3.0,8.0,98,0.00,,,0.00,meteohub,2013-05-08 01:18:00,
2013-05-07 21:20:00,74.7,72.0,29.92,NW,315,4.0,8.0,98,0.00,,,0.00,meteohub,2013-05-08 01:20:00,
2013-05-07 21:22:00,74.7,72.0,29.92,NW,315,4.0,8.0,98,0.00,,,0.00,meteohub,2013-05-08 01:22:00,
2013-05-07 21:23:00,74.7,72.1,29.92,NW,315,4.0,8.0,98,0.00,,,0.00,meteohub,2013-05-08 01:23:00,
2013-05-07 21:26:00,74.7,72.1,29.92,WNW,293,4.0,8.0,98,0.00,,,0.00,meteohub,2013-05-08 01:26:00,
2013-05-07 21:27:00,74.7,72.1,29.92,NW,315,5.0,8.0,98,0.00,,,0.00,meteohub,2013-05-08 01:27:00,
2013-05-07 21:29:00,74.7,72.1,29.93,West,270,5.0,8.0,98,0.00,,,0.00,meteohub,2013-05-08 01:29:00,
2013-05-07 21:30:00,74.7,72.1,29.92,NW,315,4.0,8.0,98,0.00,,,0.00,meteohub,2013-05-08 01:30:00,
2013-05-07 21:32:00,74.7,72.1,29.93,West,270,3.0,8.0,98,0.00,,,0.00,meteohub,2013-05-08 01:32:00,
2013-05-07 21:33:00,74.7,72.1,29.92,West,270,3.0,8.0,98,0.00,,,0.00,meteohub,2013-05-08 01:33:00,
2013-05-07 21:35:00,74.7,72.1,29.93,West,270,3.0,8.0,98,0.00,,,0.00,meteohub,2013-05-08 01:35:00,
2013-05-07 21:36:00,74.7,72.1,29.93,West,270,4.0,5.0,98,0.00,,,0.00,meteohub,2013-05-08 01:36:00,
2013-05-07 21:38:00,74.7,72.1,29.93,West,270,4.0,5.0,98,0.00,,,0.00,meteohub,2013-05-08 01:38:00,
2013-05-07 21:39:00,74.7,72.1,29.93,West,270,4.0,5.0,98,0.00,,,0.00,meteohub,2013-05-08 01:39:00,
2013-05-07 21:41:00,74.7,72.3,29.93,NW,315,3.0,5.0,98,0.00,,,0.00,meteohub,2013-05-08 01:41:00,
2013-05-07 21:42:00,74.7,72.1,29.93,NW,315,4.0,5.0,98,0.00,,,0.00,meteohub,2013-05-08 01:42:00,
2013-05-07 21:44:00,74.8,72.3,29.93,NW,315,4.0,5.0,98,0.00,,,0.00,meteohub,2013-05-08 01:44:00,
2013-05-07 21:45:00,74.8,72.3,29.93,North,0,4.0,5.0,98,0.00,,,0.00,meteohub,2013-05-08 01:45:00,
2013-05-07 21:47:00,74.8,72.0,29.93,NW,315,4.0,4.0,98,0.00,,,0.00,meteohub,2013-05-08 01:47:00,
2013-05-07 21:48:00,74.8,72.0,29.93,NW,315,4.0,4.0,98,0.00,,,0.00,meteohub,2013-05-08 01:48:00,
2013-05-07 21:50:00,74.8,72.3,29.93,NW,315,4.0,4.0,98,0.00,,,0.00,meteohub,2013-05-08 01:50:00,
2013-05-07 21:52:00,74.8,72.3,29.94,NW,315,4.0,4.0,98,0.00,,,0.00,meteohub,2013-05-08 01:52:00,
2013-05-07 21:54:00,74.8,72.3,29.94,NW,315,4.0,4.0,98,0.00,,,0.00,meteohub,2013-05-08 01:54:00,
2013-05-07 21:56:00,75.0,72.5,29.94,NW,315,4.0,6.0,98,0.00,,,0.00,meteohub,2013-05-08 01:56:00,
2013-05-07 21:58:00,74.8,72.5,29.94,NW,315,5.0,6.0,98,0.00,,,0.00,meteohub,2013-05-08 01:58:00,
2013-05-07 21:59:00,74.8,72.5,29.94,NW,315,5.0,6.0,98,0.00,,,0.00,meteohub,2013-05-08 01:59:00,
2013-05-07 22:00:00,74.8,72.5,29.94,NW,315,5.0,6.0,98,0.00,,,0.00,meteohub,2013-05-08 02:00:00,
2013-05-07 22:01:00,74.8,72.5,29.94,NW,315,5.0,6.0,98,0.00,,,0.00,meteohub,2013-05-08 02:01:00,
2013-05-07 22:04:00,75.2,72.7,29.94,NW,315,4.0,6.0,97,0.00,,,0.00,meteohub,2013-05-08 02:04:00,
2013-05-07 22:05:00,75.2,72.7,29.94,NW,315,4.0,6.0,97,0.00,,,0.00,meteohub,2013-05-08 02:05:00,
2013-05-07 22:06:00,75.2,72.7,29.94,NW,315,4.0,8.0,97,0.00,,,0.00,meteohub,2013-05-08 02:06:00,
2013-05-07 22:07:00,75.2,72.7,29.94,NW,315,5.0,8.0,97,0.00,,,0.00,meteohub,2013-05-08 02:07:00,
2013-05-07 22:10:00,75.2,72.7,29.94,West,270,7.0,8.0,97,0.00,,,0.00,meteohub,2013-05-08 02:10:00,
2013-05-07 22:12:00,75.2,72.7,29.94,NW,315,6.0,8.0,97,0.00,,,0.00,meteohub,2013-05-08 02:12:00,
2013-05-07 22:13:00,75.2,72.7,29.94,NW,315,6.0,8.0,97,0.00,,,0.00,meteohub,2013-05-08 02:13:00,
2013-05-07 22:17:00,75.2,72.3,29.94,West,270,4.0,8.0,97,0.00,,,0.00,meteohub,2013-05-08 02:17:00,
2013-05-07 22:18:00,75.2,72.3,29.94,West,270,4.0,8.0,97,0.00,,,0.00,meteohub,2013-05-08 02:18:00,
2013-05-07 22:19:00,75.2,72.3,29.95,NW,315,7.0,8.0,97,0.00,,,0.00,meteohub,2013-05-08 02:19:00,
2013-05-07 22:20:00,75.2,72.3,29.95,NW,315,7.0,8.0,97,0.00,,,0.00,meteohub,2013-05-08 02:20:00,
2013-05-07 22:22:00,75.2,72.3,29.95,WNW,293,8.0,8.0,97,0.00,,,0.00,meteohub,2013-05-08 02:22:00,
2013-05-07 22:23:00,75.2,72.3,29.95,NW,315,6.0,7.0,97,0.00,,,0.00,meteohub,2013-05-08 02:23:00,
2013-05-07 22:27:00,75.2,72.3,29.95,WNW,293,4.0,8.0,96,0.00,,,0.00,meteohub,2013-05-08 02:27:00,
2013-05-07 22:29:00,75.2,72.3,29.95,NW,315,7.0,8.0,96,0.00,,,0.00,meteohub,2013-05-08 02:29:00,
2013-05-07 22:31:00,75.2,72.3,29.95,NNW,338,5.0,8.0,96,0.00,,,0.00,meteohub,2013-05-08 02:31:00,
2013-05-07 22:32:00,75.2,72.3,29.95,NW,315,5.0,8.0,96,0.00,,,0.00,meteohub,2013-05-08 02:32:00,
2013-05-07 22:33:00,75.2,72.3,29.95,WNW,293,7.0,8.0,96,0.00,,,0.00,meteohub,2013-05-08 02:33:00,
2013-05-07 22:36:00,75.2,72.3,29.95,NW,315,7.0,8.0,96,0.00,,,0.00,meteohub,2013-05-08 02:36:00,
2013-05-07 22:37:00,75.2,72.3,29.95,West,270,4.0,8.0,96,0.00,,,0.00,meteohub,2013-05-08 02:37:00,
2013-05-07 22:40:00,75.2,72.3,29.95,West,270,5.0,8.0,96,0.00,,,0.00,meteohub,2013-05-08 02:40:00,
2013-05-07 22:41:00,75.2,72.3,29.95,West,270,4.0,7.0,96,0.00,,,0.00,meteohub,2013-05-08 02:41:00,
2013-05-07 22:42:00,75.2,72.3,29.95,West,270,4.0,7.0,96,0.00,,,0.00,meteohub,2013-05-08 02:42:00,
2013-05-07 22:45:00,75.0,72.3,29.95,NW,315,5.0,7.0,97,0.00,,,0.00,meteohub,2013-05-08 02:45:00,
2013-05-07 22:47:00,75.2,72.3,29.95,West,270,8.0,8.0,96,0.00,,,0.00,meteohub,2013-05-08 02:47:00,
2013-05-07 22:48:00,75.2,72.3,29.95,West,270,6.0,7.0,96,0.00,,,0.00,meteohub,2013-05-08 02:48:00,
2013-05-07 22:51:00,75.2,72.3,29.95,WSW,248,4.0,8.0,96,0.00,,,0.00,meteohub,2013-05-08 02:51:00,
2013-05-07 22:52:00,75.2,72.3,29.95,WNW,293,6.0,8.0,96,0.00,,,0.00,meteohub,2013-05-08 02:52:00,
2013-05-07 22:53:00,75.2,72.3,29.95,WNW,293,6.0,8.0,96,0.00,,,0.00,meteohub,2013-05-08 02:53:00,
2013-05-07 22:54:00,75.2,72.3,29.95,North,0,4.0,8.0,96,0.00,,,0.00,meteohub,2013-05-08 02:54:00,
2013-05-07 22:57:00,75.2,72.3,29.95,SW,225,5.0,8.0,96,0.00,,,0.00,meteohub,2013-05-08 02:57:00,
2013-05-07 22:59:00,75.2,72.3,29.95,WSW,248,4.0,8.0,96,0.00,,,0.00,meteohub,2013-05-08 02:59:00,
2013-05-07 23:00:00,75.4,72.3,29.95,NW,315,4.0,8.0,96,0.00,,,0.00,meteohub,2013-05-08 03:00:00,
2013-05-07 23:02:00,75.2,72.3,29.95,West,270,7.0,8.0,96,0.00,,,0.00,meteohub,2013-05-08 03:02:00,
2013-05-07 23:05:00,75.4,72.3,29.95,NW,315,4.0,8.0,96,0.00,,,0.00,meteohub,2013-05-08 03:05:00,
2013-05-07 23:06:00,75.4,72.3,29.95,West,270,4.0,7.0,96,0.00,,,0.00,meteohub,2013-05-08 03:06:00,
2013-05-07 23:07:00,75.4,72.3,29.95,NW,315,5.0,7.0,96,0.00,,,0.00,meteohub,2013-05-08 03:07:00,
2013-05-07 23:11:00,75.6,72.3,29.95,NW,315,6.0,7.0,96,0.00,,,0.00,meteohub,2013-05-08 03:11:00,
2013-05-07 23:12:00,75.6,72.3,29.95,NW,315,4.0,7.0,96,0.00,,,0.00,meteohub,2013-05-08 03:12:00,
2013-05-07 23:13:00,75.6,72.3,29.95,West,270,4.0,7.0,96,0.00,,,0.00,meteohub,2013-05-08 03:13:00,
2013-05-07 23:14:00,75.6,72.3,29.95,NW,315,4.0,7.0,96,0.00,,,0.00,meteohub,2013-05-08 03:14:00,
2013-05-07 23:17:00,75.6,72.3,29.95,NW,315,4.0,7.0,96,0.00,,,0.00,meteohub,2013-05-08 03:17:00,
2013-05-07 23:18:00,75.6,72.3,29.95,WNW,293,4.0,7.0,96,0.00,,,0.00,meteohub,2013-05-08 03:18:00,
2013-05-07 23:20:00,75.6,72.3,29.95,NW,315,5.0,7.0,96,0.00,,,0.00,meteohub,2013-05-08 03:20:00,
2013-05-07 23:21:00,75.6,72.3,29.95,WNW,293,4.0,7.0,96,0.00,,,0.00,meteohub,2013-05-08 03:21:00,
2013-05-07 23:23:00,75.6,72.3,29.95,NW,315,5.0,7.0,96,0.00,,,0.00,meteohub,2013-05-08 03:23:00,
2013-05-07 23:24:00,75.6,72.3,29.95,NW,315,7.0,7.0,96,0.00,,,0.00,meteohub,2013-05-08 03:24:00,
2013-05-07 23:25:00,75.6,72.3,29.95,WNW,293,7.0,7.0,96,0.00,,,0.00,meteohub,2013-05-08 03:25:00,
2013-05-07 23:27:00,75.6,72.3,29.95,NW,315,4.0,7.0,96,0.00,,,0.00,meteohub,2013-05-08 03:27:00,
2013-05-07 23:29:00,75.4,72.3,29.95,NW,315,5.0,7.0,96,0.00,,,0.00,meteohub,2013-05-08 03:29:00,
2013-05-07 23:30:00,75.4,72.3,29.95,North,0,5.0,7.0,96,0.00,,,0.00,meteohub,2013-05-08 03:30:00,
2013-05-07 23:31:00,75.4,72.3,29.94,WNW,293,5.0,7.0,96,0.00,,,0.00,meteohub,2013-05-08 03:31:00,
2013-05-07 23:34:00,75.2,72.3,29.95,NW,315,5.0,7.0,96,0.00,,,0.00,meteohub,2013-05-08 03:34:00,
2013-05-07 23:35:00,75.2,72.3,29.95,NW,315,4.0,7.0,96,0.00,,,0.00,meteohub,2013-05-08 03:35:00,
2013-05-07 23:36:00,75.2,72.9,29.94,NNW,338,6.0,7.0,96,0.00,,,0.00,meteohub,2013-05-08 03:36:00,
2013-05-07 23:37:00,75.2,72.3,29.95,NW,315,6.0,7.0,96,0.00,,,0.00,meteohub,2013-05-08 03:37:00,
2013-05-07 23:38:00,75.2,72.3,29.94,West,270,8.0,8.0,96,0.00,,,0.00,meteohub,2013-05-08 03:38:00,
2013-05-07 23:41:00,75.0,72.3,29.94,NW,315,7.0,8.0,97,0.00,,,0.00,meteohub,2013-05-08 03:41:00,
2013-05-07 23:42:00,75.0,72.3,29.94,NW,315,7.0,8.0,97,0.00,,,0.00,meteohub,2013-05-08 03:42:00,
2013-05-07 23:43:00,75.0,72.3,29.94,NW,315,8.0,8.0,97,0.00,,,0.00,meteohub,2013-05-08 03:43:00,
2013-05-07 23:47:00,75.0,72.3,29.94,NW,315,7.0,8.0,97,0.00,,,0.00,meteohub,2013-05-08 03:47:00,
2013-05-07 23:48:00,74.8,72.3,29.94,NW,315,4.0,8.0,97,0.00,,,0.00,meteohub,2013-05-08 03:48:00,
2013-05-07 23:52:00,74.8,72.3,29.94,NW,315,7.0,8.0,97,0.00,,,0.00,meteohub,2013-05-08 03:52:00,
2013-05-07 23:53:00,74.8,72.3,29.94,NW,315,7.0,8.0,97,0.00,,,0.00,meteohub,2013-05-08 03:53:00,
2013-05-07 23:56:00,75.0,72.3,29.94,NW,315,7.0,8.0,97,0.00,,,0.00,meteohub,2013-05-08 03:56:00,
2013-05-07 23:57:00,74.8,72.3,29.94,WNW,293,6.0,8.0,97,0.00,,,0.00,meteohub,2013-05-08 03:57:00,